N1UEC Weather Reports


time (UTC)temp
C
wind
direction
speed
KPH
gust
KPH
rain 1hr
cm
rain 24hr
cm
rain mn
cm
humidity
%
barometer
mb
20260506232754 13 47 3.2 16.1 0.03 0.10 0.10 97 1008.0
20260506232657 13 22 3.2 16.1 0.03 0.10 0.10 97 1008.0
20260506232606 13 21 8.0 16.1 0.03 0.10 0.10 97 1008.0
20260506232509 13 9 6.4 19.3 0.03 0.10 0.10 97 1008.0
20260506232412 13 58 1.6 19.3 0.03 0.10 0.10 97 1008.1
20260506232255 13 56 4.8 19.3 0.03 0.10 0.10 97 1008.1
20260506232159 13 69 6.4 19.3 0.03 0.10 0.10 97 1008.1
20260506232123 13 37 3.2 19.3 0.03 0.10 0.10 97 1008.0
20260506232004 13 28 1.6 19.3 0.03 0.10 0.10 97 1008.1
20260506231912 13 32 1.6 19.3 0.03 0.10 0.10 97 1008.1
20260506231755 13 69 6.4 19.3 0.03 0.10 0.10 97 1008.1
20260506231659 13 19 4.8 20.9 0.03 0.10 0.10 97 1008.1
20260506231603 13 345 1.6 12.9 0.03 0.10 0.10 97 1008.1
20260506231506 13 56 1.6 12.9 0.03 0.10 0.10 97 1008.1
20260506231409 13 60 1.6 12.9 0.03 0.10 0.10 97 1008.1
20260506231316 13 51 1.6 12.9 0.03 0.10 0.10 97 1008.2
20260506231159 13 32 1.6 12.9 0.03 0.10 0.10 97 1008.1
20260506231103 13 28 1.6 14.5 0.03 0.10 0.10 97 1008.1
20260506231005 13 332 3.2 17.7 0.03 0.10 0.10 97 1008.1
20260506230909 13 31 4.8 17.7 0.03 0.10 0.10 97 1008.1
20260506230812 13 10 6.4 17.7 0.03 0.10 0.10 97 1008.1
20260506230700 13 32 4.8 17.7 0.03 0.10 0.10 97 1008.1
20260506230624 13 338 1.6 17.7 0.03 0.10 0.10 97 1008.2
20260506230506 13 353 0.0 17.7 0.03 0.10 0.10 97 1008.2
20260506230430 13 51 1.6 17.7 0.03 0.10 0.10 97 1008.2
20260506230332 13 51 4.8 17.7 0.03 0.10 0.10 97 1008.2
20260506230215 13 345 6.4 17.7 0.03 0.10 0.10 97 1008.3
20260506230150 13 341 4.8 17.7 0.03 0.10 0.10 97 1008.3
20260506230013 13 61 3.2 14.5 0.03 0.10 0.10 97 1008.3
20260506225900 13 15 3.2 16.1 0.03 0.10 0.10 97 1008.2
20260506225804 13 69 0.0 11.3 0.03 0.10 0.10 97 1008.2
20260506225707 13 48 1.6 11.3 0.03 0.10 0.10 97 1008.2
20260506225612 13 48 3.2 12.9 0.03 0.10 0.10 97 1008.2
20260506225514 13 316 1.6 12.9 0.03 0.10 0.10 97 1008.2
20260506225357 13 25 1.6 14.5 0.03 0.10 0.10 97 1008.2
20260506225306 13 9 4.8 14.5 0.03 0.10 0.10 97 1008.3
20260506225208 13 42 3.2 14.5 0.05 0.10 0.10 97 1008.2
20260506225112 13 58 1.6 14.5 0.05 0.10 0.10 97 1008.2
20260506225014 13 51 3.2 14.5 0.05 0.10 0.10 97 1008.2
20260506224857 13 44 3.2 14.5 0.05 0.10 0.10 97 1008.1
20260506224800 13 28 3.2 17.7 0.05 0.10 0.10 97 1008.1
20260506224708 13 25 3.2 17.7 0.05 0.10 0.10 97 1008.1
20260506224612 13 29 4.8 17.7 0.03 0.08 0.08 97 1008.1
20260506224454 13 18 8.0 17.7 0.03 0.08 0.08 97 1008.1
20260506224357 13 28 4.8 17.7 0.03 0.08 0.08 97 1008.0
20260506224301 13 355 3.2 17.7 0.03 0.08 0.08 97 1008.0
20260506224225 13 23 3.2 17.7 0.03 0.08 0.08 97 1008.0
20260506224112 13 32 6.4 17.7 0.03 0.08 0.08 97 1008.0
20260506223954 13 336 8.0 17.7 0.03 0.08 0.08 97 1008.0
20260506223858 13 356 6.4 17.7 0.03 0.08 0.08 97 1007.9
20260506223801 13 40 8.0 17.7 0.03 0.08 0.08 97 1007.9
20260506223705 13 23 4.8 17.7 0.03 0.08 0.08 97 1007.9
20260506223608 13 12 4.8 20.9 0.03 0.08 0.08 97 1008.0
20260506223455 13 25 4.8 20.9 0.03 0.08 0.08 97 1008.0
20260506223359 13 75 3.2 20.9 0.03 0.08 0.08 97 1008.0
20260506223302 13 328 6.4 20.9 0.03 0.08 0.08 97 1008.0
20260506223205 13 30 6.4 20.9 0.03 0.08 0.08 97 1008.1
20260506223110 13 27 1.6 20.9 0.03 0.08 0.08 97 1008.0
20260506223033 13 41 3.2 20.9 0.03 0.08 0.08 97 1008.0
20260506222915 13 42 9.7 20.9 0.03 0.08 0.08 97 1008.0
20260506222801 13 25 8.0 22.5 0.03 0.08 0.08 97 1008.0
20260506222704 13 323 4.8 19.3 0.03 0.08 0.08 97 1008.0
20260506222608 13 342 6.4 19.3 0.03 0.08 0.08 97 1008.0
20260506222531 13 356 8.0 19.3 0.03 0.08 0.08 97 1008.0
20260506222413 13 341 4.8 19.3 0.03 0.08 0.08 97 1008.1
20260506222256 13 39 1.6 19.3 0.03 0.08 0.08 97 1008.1
20260506222204 13 35 3.2 19.3 0.03 0.08 0.08 97 1008.1
20260506222108 13 36 1.6 19.3 0.03 0.08 0.08 97 1008.2
20260506222010 13 16 3.2 19.3 0.03 0.08 0.08 97 1008.2
20260506221914 13 29 3.2 19.3 0.03 0.08 0.08 97 1008.2
20260506221757 13 49 1.6 14.5 0.03 0.08 0.08 97 1008.2
20260506221700 13 67 1.6 14.5 0.03 0.08 0.08 96 1008.1
20260506221625 13 56 3.2 14.5 0.03 0.08 0.08 96 1008.3
20260506221532 13 42 4.8 14.5 0.03 0.08 0.08 96 1008.2
20260506221355 13 15 6.4 14.5 0.03 0.08 0.08 96 1008.3
20260506221258 13 345 4.8 14.5 0.03 0.08 0.08 96 1008.3
20260506221202 13 354 3.2 14.5 0.03 0.08 0.08 96 1008.4
20260506221105 13 58 4.8 14.5 0.03 0.08 0.08 96 1008.3
20260506221007 13 37 4.8 14.5 0.03 0.08 0.08 96 1008.3
20260506220854 13 59 1.6 12.9 0.03 0.08 0.08 96 1008.3
20260506220758 13 23 4.8 12.9 0.03 0.08 0.08 96 1008.3
20260506220702 14 15 4.8 14.5 0.03 0.08 0.08 96 1008.4
20260506220606 14 343 6.4 14.5 0.03 0.08 0.08 96 1008.4
20260506220508 14 40 6.4 14.5 0.03 0.08 0.08 96 1008.5
20260506220431 14 348 3.2 14.5 0.03 0.08 0.08 96 1008.5
20260506220258 14 24 1.6 14.5 0.03 0.08 0.08 96 1008.4
20260506220201 14 32 3.2 14.5 0.03 0.08 0.08 95 1008.4
20260506220116 14 76 3.2 17.7 0.03 0.08 0.08 95 1008.4
20260506220001 14 335 4.8 20.9 0.03 0.08 0.08 95 1008.4
20260506215905 14 38 4.8 20.9 0.03 0.08 0.08 95 1008.4
20260506215808 14 8 1.6 20.9 0.03 0.08 0.08 95 1008.5
20260506215656 14 6 1.6 20.9 0.03 0.08 0.08 95 1008.4
20260506215559 14 6 3.2 20.9 0.03 0.08 0.08 95 1008.5
20260506215502 14 353 6.4 20.9 0.03 0.08 0.08 95 1008.5
20260506215425 14 25 8.0 25.7 0.03 0.08 0.08 95 1008.6
20260506215308 14 61 6.4 25.7 0.00 0.05 0.05 95 1008.5
20260506215212 14 8 6.4 25.7 0.00 0.05 0.05 95 1008.5
20260506215055 14 354 11.3 25.7 0.00 0.05 0.05 95 1008.5
20260506215001 15 335 9.7 25.7 0.03 0.05 0.05 95 1008.4
20260506214905 15 331 3.2 25.7 0.03 0.05 0.05 95 1008.4
20260506214808 15 62 1.6 25.7 0.03 0.05 0.05 94 1008.3
20260506214712 15 25 3.2 25.7 0.03 0.05 0.05 94 1008.4
20260506214556 15 68 8.0 25.7 0.03 0.05 0.05 94 1008.3
20260506214458 15 1 6.4 27.4 0.03 0.05 0.05 94 1008.4
20260506214426 15 33 1.6 14.5 0.03 0.05 0.05 94 1008.4
20260506214309 15 16 0.0 19.3 0.03 0.05 0.05 94 1008.4
20260506214213 15 52 1.6 19.3 0.03 0.05 0.05 94 1008.5
20260506214056 15 34 4.8 19.3 0.03 0.05 0.05 94 1008.5
20260506213958 15 54 4.8 19.3 0.03 0.05 0.05 93 1008.5
20260506213922 15 18 4.8 19.3 0.03 0.05 0.05 93 1008.5
20260506213826 15 79 4.8 19.3 0.03 0.05 0.05 93 1008.6
20260506213712 15 28 4.8 19.3 0.03 0.05 0.05 93 1008.6
20260506213616 15 57 6.4 19.3 0.03 0.05 0.05 93 1008.6
20260506213457 15 32 4.8 20.9 0.03 0.05 0.05 93 1008.5
20260506213401 15 5 1.6 12.9 0.03 0.05 0.05 93 1008.5
20260506213304 15 45 1.6 12.9 0.03 0.05 0.05 93 1008.6
20260506213208 15 25 3.2 12.9 0.03 0.05 0.05 93 1008.6
20260506213056 15 62 3.2 12.9 0.03 0.05 0.05 93 1008.6
20260506212958 15 37 3.2 22.5 0.03 0.05 0.05 93 1008.7
20260506212901 15 34 1.6 22.5 0.03 0.05 0.05 93 1008.7
20260506212805 15 29 1.6 22.5 0.03 0.05 0.05 93 1008.6
20260506212708 15 3 4.8 22.5 0.03 0.05 0.05 93 1008.6
20260506212632 15 39 3.2 22.5 0.03 0.05 0.05 93 1008.6
20260506212514 15 21 1.6 22.5 0.03 0.05 0.05 93 1008.7
20260506212422 15 41 3.2 22.5 0.03 0.05 0.05 93 1008.7
20260506212306 15 348 6.4 22.5 0.03 0.05 0.05 93 1008.6
20260506212207 15 5 6.4 22.5 0.03 0.05 0.05 93 1008.7
20260506212131 15 44 3.2 19.3 0.03 0.05 0.05 93 1008.7
20260506212013 15 49 4.8 19.3 0.03 0.05 0.05 93 1008.6
20260506211916 15 20 6.4 19.3 0.03 0.05 0.05 93 1008.6
20260506211759 15 20 3.2 20.9 0.03 0.05 0.05 93 1008.7
20260506211706 15 54 4.8 19.3 0.03 0.05 0.05 93 1008.7
20260506211630 15 47 9.7 19.3 0.03 0.05 0.05 93 1008.6
20260506211512 15 18 4.8 19.3 0.03 0.05 0.05 94 1008.7
20260506211355 15 32 1.6 19.3 0.03 0.05 0.05 94 1008.7
20260506211319 15 31 8.0 19.3 0.03 0.05 0.05 94 1008.7
20260506211201 15 28 9.7 19.3 0.03 0.05 0.05 94 1008.7
20260506211105 15 9 6.4 19.3 0.03 0.05 0.05 94 1008.7
20260506211011 15 326 4.8 19.3 0.03 0.05 0.05 94 1008.7
20260506210854 15 60 1.6 19.3 0.03 0.05 0.05 94 1008.7
20260506210758 15 5 0.0 19.3 0.05 0.05 0.05 94 1008.7
20260506210701 15 58 1.6 19.3 0.05 0.05 0.05 94 1008.7
20260506210627 15 58 1.6 19.3 0.05 0.05 0.05 94 1008.7
20260506210528 15 18 1.6 19.3 0.05 0.05 0.05 94 1008.7
20260506210410 15 360 3.2 19.3 0.05 0.05 0.05 94 1008.8
20260506210318 15 11 1.6 17.7 0.05 0.05 0.05 94 1008.8
20260506210221 15 58 4.8 17.7 0.05 0.05 0.05 94 1008.7
20260506210115 15 51 6.4 17.7 0.05 0.05 0.05 94 1008.8
20260506205959 15 41 3.2 12.9 0.05 0.05 0.05 94 1008.7
20260506205902 15 51 3.2 22.5 0.05 0.05 0.05 94 1008.7
20260506205806 15 341 4.8 22.5 0.05 0.05 0.05 94 1008.7
20260506205709 15 13 4.8 22.5 0.05 0.05 0.05 94 1008.7
20260506205617 15 20 3.2 22.5 0.05 0.05 0.05 94 1008.7
20260506205458 15 19 3.2 22.5 0.05 0.05 0.05 94 1008.7
20260506205422 15 15 1.6 22.5 0.05 0.05 0.05 94 1008.7
20260506205306 15 47 1.6 22.5 0.05 0.05 0.05 94 1008.8
20260506205228 15 28 6.4 22.5 0.05 0.05 0.05 94 1008.8
20260506205132 15 39 4.8 22.5 0.05 0.05 0.05 94 1008.8
20260506205013 15 354 3.2 22.5 0.03 0.03 0.03 94 1008.9
20260506204916 15 18 4.8 22.5 0.03 0.03 0.03 94 1008.7
20260506204803 15 76 4.8 22.5 0.03 0.03 0.03 94 1008.7
20260506204706 15 25 4.8 22.5 0.03 0.03 0.03 94 1008.9
20260506204611 15 41 6.4 22.5 0.03 0.03 0.03 93 1008.9
20260506204513 15 84 6.4 22.5 0.03 0.03 0.03 93 1008.9
20260506204357 15 41 8.0 24.1 0.03 0.03 0.03 93 1008.9
20260506204300 15 37 4.8 19.3 0.03 0.03 0.03 93 1008.9
20260506204208 15 51 1.6 19.3 0.03 0.03 0.03 93 1008.8
20260506204111 15 28 1.6 19.3 0.03 0.03 0.03 93 1008.8
20260506204014 15 25 1.6 19.3 0.03 0.03 0.03 93 1008.9
20260506203857 15 41 3.2 19.3 0.03 0.03 0.03 93 1008.9
20260506203801 15 43 4.8 19.3 0.03 0.03 0.03 93 1008.9
20260506203704 15 22 8.0 19.3 0.03 0.03 0.03 92 1009.0
20260506203612 15 330 8.0 20.9 0.03 0.03 0.03 92 1009.0
20260506203454 15 27 4.8 19.3 0.03 0.03 0.03 92 1009.0
20260506203357 15 8 3.2 19.3 0.03 0.03 0.03 92 1009.0
20260506203301 15 22 3.2 19.3 0.03 0.03 0.03 92 1009.0
20260506203205 15 70 3.2 19.3 0.03 0.03 0.03 92 1009.0
20260506203128 15 360 3.2 19.3 0.03 0.03 0.03 92 1009.0
20260506203010 15 8 3.2 19.3 0.03 0.03 0.03 92 1009.1
20260506202917 15 72 4.8 19.3 0.03 0.03 0.03 92 1009.1
20260506202800 15 49 3.2 16.1 0.03 0.03 0.03 92 1009.0
20260506202704 15 29 4.8 17.7 0.03 0.03 0.03 92 1009.0
20260506202628 15 354 4.8 19.3 0.03 0.03 0.03 92 1009.1
20260506202510 15 74 1.6 19.3 0.03 0.03 0.03 92 1009.0
20260506202412 15 13 3.2 19.3 0.03 0.03 0.03 92 1009.0
20260506202259 15 84 8.0 19.3 0.03 0.03 0.03 91 1009.0
20260506202203 15 14 6.4 19.3 0.03 0.03 0.03 92 1009.0
20260506202108 15 59 3.2 19.3 0.03 0.03 0.03 91 1009.0
20260506202030 15 51 4.8 19.3 0.03 0.03 0.03 91 1009.0
20260506201913 15 32 4.8 19.3 0.03 0.03 0.03 91 1008.8
20260506201756 15 325 6.4 19.3 0.03 0.03 0.03 91 1008.8
20260506201721 15 12 3.2 22.5 0.03 0.03 0.03 91 1008.9
20260506201609 15 75 3.2 22.5 0.03 0.03 0.03 91 1009.0
20260506201511 15 53 6.4 22.5 0.03 0.03 0.03 91 1008.9
20260506201354 15 35 4.8 22.5 0.03 0.03 0.03 91 1008.9
20260506201258 15 59 3.2 22.5 0.03 0.03 0.03 91 1009.0
20260506201201 15 347 3.2 22.5 0.03 0.03 0.03 91 1009.0
20260506201125 15 44 1.6 22.5 0.03 0.03 0.03 91 1009.1
20260506201007 15 22 4.8 22.5 0.03 0.03 0.03 91 1009.1
20260506200854 15 56 4.8 24.1 0.03 0.03 0.03 91 1009.1
20260506200758 15 342 1.6 25.7 0.00 0.00 0.00 91 1009.2
20260506200700 15 47 4.8 25.7 0.00 0.00 0.00 91 1009.1
20260506200605 15 319 4.8 25.7 0.00 0.00 0.00 91 1009.1
20260506200507 15 69 4.8 25.7 0.00 0.00 0.00 91 1009.0
20260506200431 15 333 8.0 25.7 0.00 0.00 0.00 90 1009.1
20260506200257 15 18 9.7 25.7 0.00 0.00 0.00 90 1009.1
20260506200201 15 353 6.4 25.7 0.00 0.00 0.00 90 1009.0
20260506200115 15 53 6.4 25.7 0.00 0.00 0.00 91 1009.0
20260506200000 15 32 6.4 25.7 0.00 0.00 0.00 90 1008.9
20260506195903 15 4 4.8 27.4 0.00 0.00 0.00 90 1009.1
20260506195807 15 34 6.4 20.9 0.00 0.00 0.00 90 1009.0
20260506195654 15 9 4.8 20.9 0.00 0.00 0.00 90 1009.0
20260506195559 15 359 4.8 20.9 0.00 0.00 0.00 90 1008.9
20260506195502 15 338 8.0 20.9 0.00 0.00 0.00 90 1008.8
20260506195405 15 355 8.0 20.9 0.00 0.00 0.00 89 1009.0
20260506195308 15 4 6.4 20.9 0.00 0.00 0.00 89 1009.0
20260506195212 15 51 4.8 20.9 0.00 0.00 0.00 89 1009.1
20260506195059 16 43 6.4 20.9 0.00 0.00 0.00 89 1009.0
20260506195002 16 6 3.2 20.9 0.00 0.00 0.00 89 1009.0
20260506194905 16 33 3.2 20.9 0.00 0.00 0.00 89 1009.0
20260506194809 16 28 6.4 20.9 0.00 0.00 0.00 89 1009.0
20260506194712 16 28 6.4 20.9 0.00 0.00 0.00 88 1009.1
20260506194636 16 33 6.4 20.9 0.00 0.00 0.00 88 1009.0
20260506194501 16 23 3.2 19.3 0.00 0.00 0.00 88 1009.1
20260506194405 16 51 3.2 19.3 0.00 0.00 0.00 87 1009.1
20260506194328 16 53 1.6 19.3 0.00 0.00 0.00 87 1009.1
20260506194211 16 42 6.4 19.3 0.00 0.00 0.00 87 1009.1
20260506194115 16 345 4.8 19.3 0.00 0.00 0.00 86 1009.1
20260506193957 16 47 4.8 19.3 0.00 0.00 0.00 86 1009.1
20260506193900 16 37 8.0 27.4 0.00 0.00 0.00 86 1009.1
20260506193828 16 333 8.0 27.4 0.00 0.00 0.00 86 1009.3
20260506193711 16 5 4.8 27.4 0.00 0.00 0.00 86 1009.1
20260506193615 16 49 4.8 27.4 0.00 0.00 0.00 85 1009.2
20260506193457 16 50 1.6 27.4 0.00 0.00 0.00 85 1009.2
20260506193420 16 37 1.6 27.4 0.00 0.00 0.00 85 1009.3
20260506193303 16 35 1.6 27.4 0.00 0.00 0.00 84 1009.3
20260506193206 16 42 4.8 27.4 0.00 0.00 0.00 84 1009.2
20260506193115 16 28 8.0 27.4 0.00 0.00 0.00 84 1009.2
20260506193016 16 10 1.6 19.3 0.00 0.00 0.00 84 1009.2
20260506192859 16 39 0.0 19.3 0.00 0.00 0.00 83 1009.3
20260506192802 16 38 1.6 19.3 0.00 0.00 0.00 83 1009.3
20260506192706 16 41 1.6 19.3 0.00 0.00 0.00 83 1009.2
20260506192610 16 41 1.6 19.3 0.00 0.00 0.00 83 1009.3
20260506192457 16 82 6.4 19.3 0.00 0.00 0.00 82 1009.2
20260506192400 16 348 9.7 19.3 0.00 0.00 0.00 82 1009.2
20260506192305 16 344 8.0 20.9 0.00 0.00 0.00 82 1009.2
20260506192206 16 321 6.4 20.9 0.00 0.00 0.00 81 1009.3
20260506192111 16 39 6.4 20.9 0.00 0.00 0.00 82 1009.2
20260506192012 16 93 4.8 20.9 0.00 0.00 0.00 82 1009.3
20260506191859 16 27 3.2 20.9 0.00 0.00 0.00 81 1009.3
20260506191823 17 54 4.8 20.9 0.00 0.00 0.00 81 1009.3
20260506191706 17 349 9.7 20.9 0.00 0.00 0.00 80 1009.3
20260506191610 17 330 9.7 20.9 0.00 0.00 0.00 80 1009.3
20260506191533 17 83 6.4 24.1 0.00 0.00 0.00 80 1009.3
20260506191355 17 360 4.8 19.3 0.00 0.00 0.00 80 1009.4
20260506191259 17 354 4.8 19.3 0.00 0.00 0.00 79 1009.4
20260506191206 17 29 4.8 19.3 0.00 0.00 0.00 79 1009.4
20260506191130 17 9 6.4 19.3 0.00 0.00 0.00 78 1009.4
20260506191012 17 62 8.0 24.1 0.00 0.00 0.00 77 1009.5
20260506190855 17 37 8.0 24.1 0.00 0.00 0.00 77 1009.4
20260506190758 17 355 8.0 24.1 0.00 0.00 0.00 77 1009.3
20260506190702 17 40 8.0 24.1 0.00 0.00 0.00 76 1009.4
20260506190610 17 49 4.8 24.1 0.00 0.00 0.00 76 1009.3
20260506190533 17 79 4.8 24.1 0.00 0.00 0.00 75 1009.4
20260506190355 17 18 6.4 24.1 0.00 0.00 0.00 75 1009.3
20260506190259 17 16 8.0 24.1 0.00 0.00 0.00 75 1009.4
20260506190223 17 58 8.0 24.1 0.00 0.00 0.00 75 1009.5
20260506190117 17 37 4.8 24.1 0.00 0.00 0.00 74 1009.3
20260506190022 18 44 11.3 24.1 0.00 0.00 0.00 74 1009.4
20260506185905 18 76 11.3 25.7 0.00 0.00 0.00 74 1009.5
20260506185812 18 345 8.0 24.1 0.00 0.00 0.00 74 1009.3
20260506185655 18 345 4.8 24.1 0.00 0.00 0.00 74 1009.4
20260506185559 18 34 4.8 24.1 0.00 0.00 0.00 74 1009.5
20260506185501 18 62 4.8 24.1 0.00 0.00 0.00 73 1009.5
20260506185405 18 76 6.4 24.1 0.00 0.00 0.00 73 1009.4
20260506185308 18 12 11.3 25.7 0.00 0.00 0.00 73 1009.3
20260506185155 18 73 8.0 27.4 0.00 0.00 0.00 73 1009.4
20260506185059 18 10 3.2 14.5 0.00 0.00 0.00 73 1009.3
20260506185022 18 89 3.2 14.5 0.00 0.00 0.00 73 1009.4
20260506184904 18 69 4.8 14.5 0.00 0.00 0.00 73 1009.3
20260506184828 18 33 4.8 14.5 0.00 0.00 0.00 73 1009.3
20260506184711 18 345 3.2 14.5 0.00 0.00 0.00 73 1009.2
20260506184636 18 331 3.2 20.9 0.00 0.00 0.00 73 1009.2
20260506184501 18 45 3.2 20.9 0.00 0.00 0.00 73 1009.3
20260506184426 18 34 3.2 20.9 0.00 0.00 0.00 73 1009.3
20260506184308 18 73 1.6 20.9 0.00 0.00 0.00 73 1009.3
20260506184212 18 62 3.2 20.9 0.00 0.00 0.00 73 1009.3
20260506184055 18 44 3.2 20.9 0.00 0.00 0.00 73 1009.4
20260506184018 18 10 4.8 20.9 0.00 0.00 0.00 73 1009.4
20260506183900 18 33 9.7 20.9 0.00 0.00 0.00 72 1009.4
20260506183808 18 29 6.4 22.5 0.00 0.00 0.00 72 1009.3
20260506183711 18 340 3.2 20.9 0.00 0.00 0.00 73 1009.4
20260506183556 18 18 6.4 20.9 0.00 0.00 0.00 72 1009.4
20260506183458 18 29 6.4 20.9 0.00 0.00 0.00 72 1009.4
20260506183402 18 1 4.8 16.1 0.00 0.00 0.00 72 1009.4
20260506183305 18 39 4.8 16.1 0.00 0.00 0.00 72 1009.5
20260506183213 18 7 3.2 19.3 0.00 0.00 0.00 72 1009.4
20260506183117 18 20 4.8 20.9 0.00 0.00 0.00 72 1009.4
20260506183018 18 15 6.4 20.9 0.00 0.00 0.00 72 1009.5
20260506182921 18 44 8.0 20.9 0.00 0.00 0.00 72 1009.5
20260506182804 18 1 6.4 20.9 0.00 0.00 0.00 72 1009.6
20260506182707 18 40 3.2 20.9 0.00 0.00 0.00 72 1009.6
20260506182612 18 115 3.2 20.9 0.00 0.00 0.00 72 1009.5
20260506182518 18 76 8.0 20.9 0.00 0.00 0.00 71 1009.6
20260506182401 18 64 11.3 20.9 0.00 0.00 0.00 71 1009.6
20260506182306 18 334 11.3 32.2 0.00 0.00 0.00 71 1009.6
20260506182208 18 28 8.0 32.2 0.00 0.00 0.00 71 1009.5
20260506182132 18 356 8.0 32.2 0.00 0.00 0.00 71 1009.6
20260506182013 18 333 8.0 32.2 0.00 0.00 0.00 71 1009.6
20260506181916 18 349 9.7 32.2 0.00 0.00 0.00 71 1009.6
20260506181803 18 71 9.7 32.2 0.00 0.00 0.00 71 1009.5
20260506181706 18 329 9.7 32.2 0.00 0.00 0.00 71 1009.5
20260506181610 18 342 12.9 32.2 0.00 0.00 0.00 70 1009.5
20260506181513 18 1 16.1 32.2 0.00 0.00 0.00 70 1009.5
20260506181356 18 349 16.1 35.4 0.00 0.00 0.00 70 1009.5
20260506181300 18 338 9.7 35.4 0.00 0.00 0.00 70 1009.4
20260506181207 18 8 6.4 35.4 0.00 0.00 0.00 70 1009.5
20260506181131 19 323 4.8 35.4 0.00 0.00 0.00 70 1009.6
20260506181033 19 337 6.4 35.4 0.00 0.00 0.00 70 1009.5
20260506180915 19 313 9.7 35.4 0.00 0.00 0.00 70 1009.6
20260506180757 19 25 12.9 35.4 0.00 0.00 0.00 69 1009.6
20260506180701 19 359 14.5 35.4 0.00 0.00 0.00 69 1009.5
20260506180605 19 340 17.7 38.6 0.00 0.00 0.00 69 1009.5
20260506180506 19 54 11.3 32.2 0.00 0.00 0.00 69 1009.5
20260506180414 19 18 6.4 35.4 0.00 0.00 0.00 69 1009.5
20260506180257 19 58 1.6 35.4 0.00 0.00 0.00 69 1009.6
20260506180221 19 22 8.0 35.4 0.00 0.00 0.00 69 1009.7
20260506180115 19 47 11.3 35.4 0.00 0.00 0.00 69 1009.6
20260506175959 19 356 11.3 35.4 0.00 0.00 0.00 68 1009.7
20260506175902 20 295 9.7 35.4 0.00 0.00 0.00 68 1009.7
20260506175810 20 1 6.4 35.4 0.00 0.00 0.00 68 1009.8
20260506175713 20 79 11.3 35.4 0.00 0.00 0.00 68 1009.8
20260506175556 20 64 12.9 38.6 0.00 0.00 0.00 68 1009.6
20260506175459 20 357 9.7 22.5 0.00 0.00 0.00 67 1009.8
20260506175403 20 16 12.9 22.5 0.00 0.00 0.00 67 1009.7
20260506175306 20 345 11.3 30.6 0.00 0.00 0.00 67 1009.8
20260506175213 20 22 8.0 30.6 0.00 0.00 0.00 67 1009.8
20260506175057 20 47 4.8 30.6 0.00 0.00 0.00 67 1009.9
20260506174959 20 50 3.2 30.6 0.00 0.00 0.00 68 1009.8
20260506174903 20 22 3.2 30.6 0.00 0.00 0.00 68 1009.8
20260506174806 20 39 1.6 30.6 0.00 0.00 0.00 68 1009.8
20260506174710 20 5 4.8 30.6 0.00 0.00 0.00 67 1009.9
20260506174557 20 34 11.3 30.6 0.00 0.00 0.00 67 1009.8
20260506174500 20 21 9.7 30.6 0.00 0.00 0.00 67 1009.8
20260506174403 20 355 9.7 22.5 0.00 0.00 0.00 66 1009.8
20260506174307 20 46 9.7 22.5 0.00 0.00 0.00 66 1009.7
20260506174210 20 321 8.0 25.7 0.00 0.00 0.00 66 1009.9
20260506174114 20 345 8.0 25.7 0.00 0.00 0.00 66 1009.9
20260506174000 20 3 9.7 25.7 0.00 0.00 0.00 66 1010.0
20260506173904 20 11 9.7 25.7 0.00 0.00 0.00 66 1010.0
20260506173807 20 52 8.0 25.7 0.00 0.00 0.00 66 1010.0
20260506173710 20 134 11.3 25.7 0.00 0.00 0.00 65 1010.0
20260506173614 20 37 9.7 25.7 0.00 0.00 0.00 65 1009.9
20260506173517 20 76 8.0 25.7 0.00 0.00 0.00 66 1009.9
20260506173403 20 348 6.4 25.7 0.00 0.00 0.00 66 1010.0
20260506173327 20 41 4.8 22.5 0.00 0.00 0.00 66 1010.1
20260506173210 20 18 8.0 22.5 0.00 0.00 0.00 66 1010.1
20260506173113 20 328 11.3 22.5 0.00 0.00 0.00 65 1010.1
20260506172955 20 30 8.0 27.4 0.00 0.00 0.00 66 1010.1
20260506172919 20 345 6.4 37.0 0.00 0.00 0.00 66 1010.0
20260506172822 20 12 9.7 37.0 0.00 0.00 0.00 65 1010.1
20260506172704 20 321 6.4 45.1 0.00 0.00 0.00 65 1010.1
20260506172612 20 354 3.2 45.1 0.00 0.00 0.00 66 1010.2
20260506172454 20 47 4.8 45.1 0.00 0.00 0.00 66 1010.1
20260506172358 20 316 3.2 45.1 0.00 0.00 0.00 66 1010.2
20260506172305 20 40 4.8 45.1 0.00 0.00 0.00 66 1010.1
20260506172225 20 45 11.3 45.1 0.00 0.00 0.00 65 1010.1
20260506172108 21 333 14.5 45.1 0.00 0.00 0.00 65 1010.1
20260506171954 21 60 11.3 45.1 0.00 0.00 0.00 65 1010.1
20260506171918 21 89 8.0 48.3 0.00 0.00 0.00 65 1009.9
20260506171801 21 322 9.7 20.9 0.00 0.00 0.00 65 1010.0
20260506171704 21 1 9.7 24.1 0.00 0.00 0.00 65 1010.0
20260506171607 21 6 9.7 25.7 0.00 0.00 0.00 65 1010.0
20260506171510 21 9 9.7 25.7 0.00 0.00 0.00 66 1010.0
20260506171356 21 14 6.4 25.7 0.00 0.00 0.00 65 1010.0
20260506171300 21 34 8.0 29.0 0.00 0.00 0.00 65 1009.9
20260506171203 21 13 8.0 29.0 0.00 0.00 0.00 65 1009.9
20260506171107 21 49 8.0 29.0 0.00 0.00 0.00 66 1009.9
20260506171029 21 16 9.7 29.0 0.00 0.00 0.00 65 1009.9
20260506170912 21 62 11.3 29.0 0.00 0.00 0.00 65 1009.9
20260506170755 21 359 12.9 29.0 0.00 0.00 0.00 65 1009.8
20260506170703 21 349 12.9 29.0 0.00 0.00 0.00 65 1009.9
20260506170608 21 40 9.7 29.0 0.00 0.00 0.00 65 1009.9
20260506170510 21 57 12.9 29.0 0.00 0.00 0.00 65 1009.8
20260506170413 21 340 12.9 29.0 0.00 0.00 0.00 65 1009.9
20260506170257 21 56 6.4 27.4 0.00 0.00 0.00 65 1009.8
20260506170200 21 336 9.7 27.4 0.00 0.00 0.00 65 1009.9
20260506170119 21 75 11.3 27.4 0.00 0.00 0.00 65 1009.8
20260506170024 21 23 8.0 22.5 0.00 0.00 0.00 65 1009.9
20260506165926 21 360 9.7 22.5 0.00 0.00 0.00 66 1010.0
20260506165809 21 314 4.8 30.6 0.00 0.00 0.00 66 1010.0
20260506165733 21 44 1.6 30.6 0.00 0.00 0.00 67 1010.0
20260506165555 21 40 4.8 30.6 0.00 0.00 0.00 67 1010.0
20260506165457 20 16 6.4 30.6 0.00 0.00 0.00 66 1010.0
20260506165405 20 33 6.4 30.6 0.00 0.00 0.00 66 1010.0
20260506165309 20 84 6.4 30.6 0.00 0.00 0.00 67 1010.0
20260506165212 20 40 8.0 30.6 0.00 0.00 0.00 66 1010.1
20260506165057 20 13 11.3 30.6 0.00 0.00 0.00 66 1010.0
20260506164959 20 52 8.0 30.6 0.00 0.00 0.00 66 1010.1
20260506164902 20 27 8.0 30.6 0.00 0.00 0.00 67 1010.1
20260506164825 20 60 8.0 30.6 0.00 0.00 0.00 67 1010.2
20260506164732 20 18 12.9 30.6 0.00 0.00 0.00 67 1010.1
20260506164556 20 356 12.9 30.6 0.00 0.00 0.00 67 1010.1
20260506164458 20 18 6.4 33.8 0.00 0.00 0.00 67 1010.2
20260506164401 20 342 8.0 33.8 0.00 0.00 0.00 68 1010.3
20260506164305 20 50 6.4 33.8 0.00 0.00 0.00 67 1010.2
20260506164208 20 336 4.8 33.8 0.00 0.00 0.00 68 1010.4
20260506164056 20 34 6.4 33.8 0.00 0.00 0.00 67 1010.4
20260506163958 20 312 12.9 33.8 0.00 0.00 0.00 67 1010.4
20260506163902 20 329 14.5 33.8 0.00 0.00 0.00 66 1010.4
20260506163805 20 337 12.9 33.8 0.00 0.00 0.00 67 1010.3
20260506163709 20 349 12.9 35.4 0.00 0.00 0.00 67 1010.4
20260506163612 20 356 11.3 25.7 0.00 0.00 0.00 67 1010.4
20260506163459 20 345 9.7 25.7 0.00 0.00 0.00 66 1010.4
20260506163402 20 353 9.7 24.1 0.00 0.00 0.00 66 1010.4
20260506163326 20 329 12.9 22.5 0.00 0.00 0.00 67 1010.4
20260506163208 21 336 8.0 22.5 0.00 0.00 0.00 67 1010.4
20260506163112 20 23 3.2 24.1 0.00 0.00 0.00 67 1010.5
20260506162954 20 336 1.6 33.8 0.00 0.00 0.00 67 1010.5
20260506162918 20 43 3.2 33.8 0.00 0.00 0.00 68 1010.5
20260506162804 20 34 4.8 33.8 0.00 0.00 0.00 67 1010.5
20260506162708 20 39 3.2 33.8 0.00 0.00 0.00 67 1010.6
20260506162612 20 74 4.8 33.8 0.00 0.00 0.00 67 1010.5
20260506162515 20 81 9.7 33.8 0.00 0.00 0.00 67 1010.6
20260506162358 20 20 11.3 33.8 0.00 0.00 0.00 67 1010.6
20260506162301 20 341 11.3 33.8 0.00 0.00 0.00 66 1010.5
20260506162209 20 330 8.0 33.8 0.00 0.00 0.00 67 1010.6
20260506162112 20 82 3.2 24.1 0.00 0.00 0.00 68 1010.6
20260506161954 20 34 4.8 24.1 0.00 0.00 0.00 68 1010.6
20260506161858 20 20 6.4 25.7 0.00 0.00 0.00 68 1010.6
20260506161801 20 19 4.8 25.7 0.00 0.00 0.00 68 1010.6
20260506161705 20 350 4.8 25.7 0.00 0.00 0.00 69 1010.5
20260506161613 20 1 8.0 25.7 0.00 0.00 0.00 68 1010.5
20260506161456 20 33 6.4 25.7 0.00 0.00 0.00 68 1010.6
20260506161419 20 32 6.4 25.7 0.00 0.00 0.00 68 1010.6
20260506161302 20 333 9.7 25.7 0.00 0.00 0.00 68 1010.7
20260506161205 20 49 16.1 25.7 0.00 0.00 0.00 68 1010.7
20260506161110 20 22 14.5 25.7 0.00 0.00 0.00 68 1010.7
20260506160957 20 40 8.0 24.1 0.00 0.00 0.00 68 1010.7
20260506160900 20 81 8.0 24.1 0.00 0.00 0.00 68 1010.7
20260506160802 20 350 6.4 30.6 0.00 0.00 0.00 68 1010.7
20260506160706 20 316 3.2 30.6 0.00 0.00 0.00 69 1010.7
20260506160631 20 50 8.0 30.6 0.00 0.00 0.00 68 1010.7
20260506160512 20 42 11.3 30.6 0.00 0.00 0.00 68 1010.6
20260506160355 20 354 8.0 30.6 0.00 0.00 0.00 68 1010.8
20260506160303 20 69 6.4 30.6 0.00 0.00 0.00 67 1010.7
20260506160206 20 66 9.7 30.6 0.00 0.00 0.00 68 1010.8
20260506160122 20 353 14.5 30.6 0.00 0.00 0.00 67 1010.8
20260506160006 20 14 16.1 30.6 0.00 0.00 0.00 67 1010.8
20260506155910 20 13 11.3 30.6 0.00 0.00 0.00 67 1010.8
20260506155813 20 13 4.8 22.5 0.00 0.00 0.00 67 1010.9
20260506155700 20 335 6.4 22.5 0.00 0.00 0.00 67 1010.8
20260506155605 20 1 8.0 22.5 0.00 0.00 0.00 67 1010.9
20260506155507 20 330 8.0 27.4 0.00 0.00 0.00 67 1010.9
20260506155411 20 47 9.7 27.4 0.00 0.00 0.00 68 1010.8
20260506155254 20 336 9.7 27.4 0.00 0.00 0.00 67 1010.9
20260506155158 20 30 9.7 27.4 0.00 0.00 0.00 67 1010.9
20260506155105 20 23 9.7 27.4 0.00 0.00 0.00 67 1010.9
20260506155007 20 44 11.3 27.4 0.00 0.00 0.00 67 1011.0
20260506154910 20 328 11.3 27.4 0.00 0.00 0.00 67 1011.0
20260506154813 20 343 12.9 27.4 0.00 0.00 0.00 67 1011.0
20260506154657 20 15 9.7 27.4 0.00 0.00 0.00 68 1010.9
20260506154600 20 47 4.8 20.9 0.00 0.00 0.00 67 1011.0
20260506154507 20 33 3.2 20.9 0.00 0.00 0.00 68 1011.0
20260506154411 20 33 3.2 20.9 0.00 0.00 0.00 68 1011.0
20260506154314 20 49 9.7 20.9 0.00 0.00 0.00 67 1011.1
20260506154217 20 18 9.7 20.9 0.00 0.00 0.00 67 1011.0
20260506154120 20 72 6.4 20.9 0.00 0.00 0.00 67 1011.1
20260506154002 20 51 4.8 20.9 0.00 0.00 0.00 67 1011.2
20260506153905 20 335 6.4 20.9 0.00 0.00 0.00 67 1011.1
20260506153813 20 345 9.7 22.5 0.00 0.00 0.00 66 1011.1
20260506153717 20 323 9.7 22.5 0.00 0.00 0.00 66 1011.1
20260506153619 20 214 4.8 22.5 0.00 0.00 0.00 67 1011.2
20260506153501 20 53 6.4 22.5 0.00 0.00 0.00 66 1011.2
20260506153404 20 58 8.0 22.5 0.00 0.00 0.00 66 1011.2
20260506153328 20 345 8.0 22.5 0.00 0.00 0.00 66 1011.2
20260506153210 20 284 6.4 22.5 0.00 0.00 0.00 67 1011.1
20260506153058 20 321 8.0 25.7 0.00 0.00 0.00 68 1011.2
20260506153000 20 350 11.3 25.7 0.00 0.00 0.00 67 1011.2
20260506152904 20 352 8.0 25.7 0.00 0.00 0.00 67 1011.2
20260506152828 20 355 8.0 25.7 0.00 0.00 0.00 67 1011.3
20260506152710 20 356 9.7 27.4 0.00 0.00 0.00 67 1011.3
20260506152615 20 345 11.3 27.4 0.00 0.00 0.00 67 1011.4
20260506152501 20 39 11.3 27.4 0.00 0.00 0.00 67 1011.4
20260506152404 20 76 9.7 27.4 0.00 0.00 0.00 68 1011.3
20260506152308 20 321 6.4 27.4 0.00 0.00 0.00 68 1011.4
20260506152211 20 74 4.8 27.4 0.00 0.00 0.00 68 1011.4
20260506152056 20 9 9.7 27.4 0.00 0.00 0.00 68 1011.3
20260506151958 20 33 11.3 27.4 0.00 0.00 0.00 68 1011.3
20260506151922 20 106 11.3 27.4 0.00 0.00 0.00 68 1011.3
20260506151828 20 40 11.3 25.7 0.00 0.00 0.00 68 1011.3
20260506151711 20 319 9.7 25.7 0.00 0.00 0.00 68 1011.3
20260506151614 20 333 8.0 20.9 0.00 0.00 0.00 68 1011.4
20260506151456 20 357 11.3 22.5 0.00 0.00 0.00 68 1011.4
20260506151400 20 100 9.7 22.5 0.00 0.00 0.00 68 1011.5
20260506151303 20 15 8.0 22.5 0.00 0.00 0.00 68 1011.5
20260506151211 20 68 9.7 22.5 0.00 0.00 0.00 68 1011.4
20260506151136 20 51 11.3 22.5 0.00 0.00 0.00 68 1011.4
20260506150957 20 81 8.0 22.5 0.00 0.00 0.00 69 1011.5
20260506150900 20 30 6.4 22.5 0.00 0.00 0.00 69 1011.6
20260506150804 20 72 9.7 22.5 0.00 0.00 0.00 68 1011.5
20260506150707 20 11 11.3 22.5 0.00 0.00 0.00 68 1011.5
20260506150555 20 323 9.7 20.9 0.00 0.00 0.00 68 1011.4
20260506150457 20 293 9.7 22.5 0.00 0.00 0.00 68 1011.5
20260506150401 20 22 4.8 29.0 0.00 0.00 0.00 68 1011.6
20260506150305 20 1 6.4 29.0 0.00 0.00 0.00 69 1011.6
20260506150208 20 45 6.4 29.0 0.00 0.00 0.00 68 1011.5
20260506150123 20 16 8.0 29.0 0.00 0.00 0.00 69 1011.6
20260506150008 20 63 8.0 29.0 0.00 0.00 0.00 68 1011.5
20260506145855 20 23 4.8 29.0 0.00 0.00 0.00 68 1011.4
20260506145759 20 65 4.8 29.0 0.00 0.00 0.00 68 1011.4
20260506145702 20 15 8.0 29.0 0.00 0.00 0.00 69 1011.6
20260506145626 20 19 9.7 29.0 0.00 0.00 0.00 68 1011.4
20260506145507 20 5 12.9 30.6 0.00 0.00 0.00 68 1011.5
20260506145411 20 96 14.5 27.4 0.00 0.00 0.00 68 1011.4
20260506145258 20 66 9.7 19.3 0.00 0.00 0.00 68 1011.5
20260506145202 20 19 6.4 30.6 0.00 0.00 0.00 68 1011.5
20260506145105 20 37 6.4 30.6 0.00 0.00 0.00 68 1011.5
20260506145008 20 53 6.4 30.6 0.00 0.00 0.00 69 1011.5
20260506144931 20 316 8.0 30.6 0.00 0.00 0.00 68 1011.6
20260506144813 20 80 9.7 30.6 0.00 0.00 0.00 69 1011.5
20260506144717 20 328 11.3 30.6 0.00 0.00 0.00 68 1011.3
20260506144604 20 349 8.0 30.6 0.00 0.00 0.00 68 1011.4
20260506144507 20 330 8.0 30.6 0.00 0.00 0.00 69 1011.3
20260506144410 20 73 12.9 30.6 0.00 0.00 0.00 68 1011.4
20260506144314 20 54 11.3 32.2 0.00 0.00 0.00 68 1011.4
20260506144157 20 64 9.7 32.2 0.00 0.00 0.00 68 1011.3
20260506144100 20 359 8.0 32.2 0.00 0.00 0.00 68 1011.3
20260506144007 20 338 6.4 32.2 0.00 0.00 0.00 68 1011.3
20260506143930 20 26 4.8 32.2 0.00 0.00 0.00 68 1011.3
20260506143833 20 6 6.4 32.2 0.00 0.00 0.00 69 1011.3
20260506143656 20 171 11.3 32.2 0.00 0.00 0.00 68 1011.3
20260506143559 20 8 12.9 32.2 0.00 0.00 0.00 68 1011.4
20260506143522 20 352 8.0 35.4 0.00 0.00 0.00 68 1011.3
20260506143404 20 18 1.6 22.5 0.00 0.00 0.00 69 1011.4
20260506143311 20 79 6.4 22.5 0.00 0.00 0.00 68 1011.3
20260506143154 20 25 9.7 22.5 0.00 0.00 0.00 68 1011.1
20260506143059 20 345 4.8 22.5 0.00 0.00 0.00 69 1011.3
20260506143001 20 360 0.0 17.7 0.00 0.00 0.00 69 1011.2
20260506142905 20 47 1.6 17.7 0.00 0.00 0.00 69 1011.2
20260506142808 20 25 1.6 27.4 0.00 0.00 0.00 69 1011.2
20260506142716 20 56 4.8 27.4 0.00 0.00 0.00 69 1011.2
20260506142559 20 6 4.8 27.4 0.00 0.00 0.00 69 1011.1
20260506142501 20 347 6.4 27.4 0.00 0.00 0.00 70 1011.2
20260506142405 20 345 8.0 27.4 0.00 0.00 0.00 69 1011.1
20260506142308 20 51 6.4 27.4 0.00 0.00 0.00 69 1011.2
20260506142212 20 49 3.2 27.4 0.00 0.00 0.00 69 1011.2
20260506142059 20 25 8.0 27.4 0.00 0.00 0.00 70 1011.3
20260506142001 20 22 9.7 29.0 0.00 0.00 0.00 69 1011.1
20260506141905 20 23 4.8 29.0 0.00 0.00 0.00 70 1011.3
20260506141808 19 336 6.4 29.0 0.00 0.00 0.00 70 1011.3
20260506141712 19 41 6.4 30.6 0.00 0.00 0.00 70 1011.3
20260506141555 19 65 9.7 30.6 0.00 0.00 0.00 70 1011.3
20260506141502 19 89 9.7 30.6 0.00 0.00 0.00 70 1011.4
20260506141425 19 321 9.7 30.6 0.00 0.00 0.00 70 1011.5
20260506141308 19 41 12.9 30.6 0.00 0.00 0.00 70 1011.3
20260506141211 19 21 9.7 30.6 0.00 0.00 0.00 70 1011.5
20260506141135 19 295 8.0 30.6 0.00 0.00 0.00 70 1011.3
20260506140957 19 58 12.9 30.6 0.00 0.00 0.00 70 1011.4
20260506140920 19 33 11.3 27.4 0.00 0.00 0.00 70 1011.3
20260506140823 19 347 9.7 25.7 0.00 0.00 0.00 71 1011.4
20260506140710 19 28 4.8 25.7 0.00 0.00 0.00 71 1011.3
20260506140635 19 13 3.2 25.7 0.00 0.00 0.00 72 1011.2
20260506140456 19 6 8.0 25.7 0.00 0.00 0.00 72 1011.2
20260506140359 19 62 9.7 25.7 0.00 0.00 0.00 72 1011.2
20260506140303 19 33 8.0 25.7 0.00 0.00 0.00 72 1011.2
20260506140227 19 29 11.3 24.1 0.00 0.00 0.00 72 1011.3
20260506140120 19 36 12.9 24.1 0.00 0.00 0.00 71 1011.3
20260506140009 19 350 9.7 25.7 0.00 0.00 0.00 72 1011.5
20260506135912 19 355 6.4 22.5 0.00 0.00 0.00 72 1011.1
20260506135755 19 90 4.8 22.5 0.00 0.00 0.00 72 1011.3
20260506135659 19 333 6.4 22.5 0.00 0.00 0.00 72 1011.3
20260506135603 19 35 6.4 22.5 0.00 0.00 0.00 72 1011.3
20260506135506 19 349 4.8 22.5 0.00 0.00 0.00 73 1011.3
20260506135413 18 48 4.8 22.5 0.00 0.00 0.00 72 1011.3
20260506135257 18 338 11.3 22.5 0.00 0.00 0.00 72 1011.3
20260506135200 18 32 11.3 22.5 0.00 0.00 0.00 72 1011.2
20260506135104 18 354 9.7 24.1 0.00 0.00 0.00 72 1011.1
20260506135006 18 326 9.7 19.3 0.00 0.00 0.00 73 1011.2
20260506134910 18 356 12.9 19.3 0.00 0.00 0.00 72 1011.2
20260506134757 18 34 6.4 20.9 0.00 0.00 0.00 73 1011.3
20260506134701 18 47 3.2 19.3 0.00 0.00 0.00 73 1011.3
20260506134605 18 44 3.2 20.9 0.00 0.00 0.00 74 1011.3
20260506134507 18 36 8.0 20.9 0.00 0.00 0.00 73 1011.3
20260506134430 18 352 8.0 20.9 0.00 0.00 0.00 73 1011.3
20260506134313 18 49 6.4 20.9 0.00 0.00 0.00 73 1011.4
20260506134216 18 39 6.4 20.9 0.00 0.00 0.00 74 1011.4
20260506134123 18 33 8.0 20.9 0.00 0.00 0.00 73 1011.4
20260506134005 18 318 8.0 20.9 0.00 0.00 0.00 73 1011.4
20260506133908 18 20 11.3 20.9 0.00 0.00 0.00 73 1011.5
20260506133812 18 18 11.3 20.9 0.00 0.00 0.00 73 1011.6
20260506133655 18 45 4.8 20.9 0.00 0.00 0.00 73 1011.7
20260506133600 18 47 3.2 20.9 0.00 0.00 0.00 73 1011.7
20260506133507 18 356 6.4 20.9 0.00 0.00 0.00 73 1011.8
20260506133430 18 5 9.7 20.9 0.00 0.00 0.00 73 1011.9
20260506133313 18 16 9.7 20.9 0.00 0.00 0.00 73 1011.9
20260506133156 18 53 3.2 19.3 0.00 0.00 0.00 73 1011.9
20260506133059 18 349 4.8 19.3 0.00 0.00 0.00 74 1011.9
20260506133002 18 44 4.8 19.3 0.00 0.00 0.00 73 1012.0
20260506132906 18 6 4.8 19.3 0.00 0.00 0.00 74 1011.9
20260506132813 18 64 6.4 27.4 0.00 0.00 0.00 73 1012.0
20260506132656 18 349 4.8 27.4 0.00 0.00 0.00 74 1011.9
20260506132601 18 58 8.0 27.4 0.00 0.00 0.00 75 1011.9
20260506132503 18 321 9.7 27.4 0.00 0.00 0.00 75 1012.0
20260506132407 18 61 6.4 27.4 0.00 0.00 0.00 75 1011.9
20260506132254 18 40 1.6 27.4 0.00 0.00 0.00 76 1011.9
20260506132158 18 29 3.2 27.4 0.00 0.00 0.00 76 1011.9
20260506132121 18 49 8.0 27.4 0.00 0.00 0.00 76 1011.9
20260506132003 18 42 12.9 27.4 0.00 0.00 0.00 76 1011.9
20260506131906 18 348 6.4 22.5 0.00 0.00 0.00 76 1011.9
20260506131830 18 12 4.8 22.5 0.00 0.00 0.00 77 1012.0
20260506131713 18 29 6.4 22.5 0.00 0.00 0.00 77 1012.1
20260506131600 17 345 4.8 22.5 0.00 0.00 0.00 78 1012.0
20260506131503 17 27 6.4 22.5 0.00 0.00 0.00 77 1012.0
20260506131406 17 346 9.7 22.5 0.00 0.00 0.00 77 1012.0
20260506131310 17 36 11.3 22.5 0.00 0.00 0.00 77 1012.1
20260506131213 17 8 12.9 22.5 0.00 0.00 0.00 77 1012.0
20260506131056 17 37 11.3 22.5 0.00 0.00 0.00 77 1012.0
20260506131003 17 40 8.0 22.5 0.00 0.00 0.00 77 1012.0
20260506130907 17 6 9.7 22.5 0.00 0.00 0.00 77 1011.9
20260506130810 17 30 9.7 22.5 0.00 0.00 0.00 78 1011.9
20260506130714 17 358 8.0 22.5 0.00 0.00 0.00 78 1012.0
20260506130557 17 58 9.7 17.7 0.00 0.00 0.00 77 1012.0
20260506130500 17 27 8.0 17.7 0.00 0.00 0.00 78 1011.9
20260506130407 17 359 4.8 14.5 0.00 0.00 0.00 78 1011.9
20260506130331 17 15 6.4 14.5 0.00 0.00 0.00 78 1011.9
20260506130213 17 67 6.4 22.5 0.00 0.00 0.00 79 1011.9
20260506130127 17 20 4.8 22.5 0.00 0.00 0.00 79 1011.9
20260506130012 17 29 4.8 22.5 0.00 0.00 0.00 80 1011.9
20260506125856 17 25 3.2 22.5 0.00 0.00 0.00 80 1012.0
20260506125759 17 55 1.6 22.5 0.00 0.00 0.00 80 1012.0
20260506125707 17 75 3.2 22.5 0.00 0.00 0.00 80 1012.0
20260506125611 17 19 8.0 22.5 0.00 0.00 0.00 80 1012.0
20260506125514 17 57 9.7 22.5 0.00 0.00 0.00 80 1012.0
20260506125357 17 333 11.3 22.5 0.00 0.00 0.00 80 1012.0
20260506125320 17 93 11.3 22.5 0.00 0.00 0.00 80 1012.0
20260506125223 17 349 6.4 17.7 0.00 0.00 0.00 81 1012.0
20260506125106 16 39 6.4 25.7 0.00 0.00 0.00 81 1012.0
20260506125013 16 16 8.0 25.7 0.00 0.00 0.00 81 1012.1
20260506124916 16 23 9.7 25.7 0.00 0.00 0.00 81 1012.0
20260506124759 16 11 8.0 25.7 0.00 0.00 0.00 82 1012.0
20260506124702 16 13 4.8 25.7 0.00 0.00 0.00 82 1012.0
20260506124606 16 38 1.6 25.7 0.00 0.00 0.00 82 1012.0
20260506124508 16 47 1.6 25.7 0.00 0.00 0.00 82 1012.0
20260506124356 16 45 8.0 25.7 0.00 0.00 0.00 82 1012.0
20260506124259 16 23 6.4 27.4 0.00 0.00 0.00 82 1012.1
20260506124223 16 45 6.4 19.3 0.00 0.00 0.00 83 1012.1
20260506124106 16 348 8.0 19.3 0.00 0.00 0.00 82 1012.2
20260506124009 16 35 3.2 14.5 0.00 0.00 0.00 83 1012.2
20260506123912 16 345 1.6 14.5 0.00 0.00 0.00 83 1012.2
20260506123817 16 55 0.0 16.1 0.00 0.00 0.00 83 1012.1
20260506123703 16 56 3.2 17.7 0.00 0.00 0.00 83 1012.1
20260506123607 16 359 4.8 17.7 0.00 0.00 0.00 83 1012.1
20260506123509 16 42 3.2 17.7 0.00 0.00 0.00 83 1012.2
20260506123433 16 65 4.8 17.7 0.00 0.00 0.00 83 1012.1
20260506123256 16 14 4.8 19.3 0.00 0.00 0.00 83 1012.1
20260506123159 16 49 6.4 19.3 0.00 0.00 0.00 83 1012.2
20260506123123 16 30 6.4 19.3 0.00 0.00 0.00 83 1012.1
20260506123008 16 39 6.4 22.5 0.00 0.00 0.00 84 1012.1
20260506122932 16 13 9.7 22.5 0.00 0.00 0.00 84 1012.1
20260506122754 16 347 9.7 22.5 0.00 0.00 0.00 84 1012.1
20260506122718 16 25 6.4 22.5 0.00 0.00 0.00 84 1012.2
20260506122602 16 33 8.0 22.5 0.00 0.00 0.00 84 1012.1
20260506122504 16 67 9.7 22.5 0.00 0.00 0.00 84 1012.1
20260506122428 16 12 4.8 24.1 0.00 0.00 0.00 84 1012.0
20260506122331 16 49 8.0 24.1 0.00 0.00 0.00 84 1012.0
20260506122217 16 9 11.3 24.1 0.00 0.00 0.00 84 1012.1
20260506122100 16 1 4.8 24.1 0.00 0.00 0.00 85 1012.0
20260506122002 16 59 4.8 25.7 0.00 0.00 0.00 85 1012.0
20260506121906 16 75 8.0 25.7 0.00 0.00 0.00 85 1011.9
20260506121809 16 8 6.4 25.7 0.00 0.00 0.00 85 1011.9
20260506121712 16 13 9.7 25.7 0.00 0.00 0.00 85 1011.8
20260506121600 16 25 12.9 25.7 0.00 0.00 0.00 85 1011.8
20260506121523 16 40 11.3 25.7 0.00 0.00 0.00 85 1011.9
20260506121405 15 59 11.3 25.7 0.00 0.00 0.00 85 1011.9
20260506121309 15 20 12.9 25.7 0.00 0.00 0.00 85 1011.9
20260506121212 15 5 11.3 25.7 0.00 0.00 0.00 85 1011.8
20260506121056 15 343 4.8 20.9 0.00 0.00 0.00 86 1011.9
20260506121002 15 42 9.7 20.9 0.00 0.00 0.00 86 1011.9
20260506120905 15 339 11.3 20.9 0.00 0.00 0.00 86 1011.9
20260506120808 15 349 8.0 20.9 0.00 0.00 0.00 86 1012.0
20260506120712 15 1 4.8 20.9 0.00 0.00 0.00 87 1012.1
20260506120556 15 19 4.8 20.9 0.00 0.00 0.00 87 1012.1
20260506120459 15 8 8.0 20.9 0.00 0.00 0.00 87 1012.2
20260506120406 15 32 9.7 20.9 0.00 0.00 0.00 87 1012.2
20260506120310 15 359 4.8 20.9 0.00 0.00 0.00 88 1012.3
20260506120213 15 10 3.2 16.1 0.00 0.00 0.00 88 1012.3
20260506120128 15 25 3.2 16.1 0.00 0.00 0.00 89 1012.3
20260506120012 15 35 0.0 19.3 0.00 0.00 0.00 89 1012.3
20260506115916 15 56 1.6 19.3 0.00 0.00 0.00 88 1012.3
20260506115758 15 56 4.8 22.5 0.00 0.00 0.00 88 1012.3
20260506115706 15 13 8.0 22.5 0.00 0.00 0.00 88 1012.3
20260506115609 15 50 6.4 22.5 0.00 0.00 0.00 88 1012.2
20260506115532 15 343 4.8 22.5 0.00 0.00 0.00 88 1012.3
20260506115354 15 15 8.0 22.5 0.00 0.00 0.00 88 1012.4
20260506115258 15 359 9.7 22.5 0.00 0.00 0.00 88 1012.3
20260506115201 15 30 6.4 22.5 0.00 0.00 0.00 88 1012.3
20260506115125 15 13 8.0 22.5 0.00 0.00 0.00 88 1012.4
20260506115011 15 37 9.7 22.5 0.00 0.00 0.00 88 1012.4
20260506114854 15 11 6.4 17.7 0.00 0.00 0.00 88 1012.4
20260506114757 15 57 6.4 17.7 0.00 0.00 0.00 88 1012.4
20260506114701 15 359 6.4 27.4 0.00 0.00 0.00 88 1012.5
20260506114604 15 89 9.7 27.4 0.00 0.00 0.00 88 1012.4
20260506114508 15 352 6.4 27.4 0.00 0.00 0.00 88 1012.4
20260506114354 15 28 1.6 27.4 0.00 0.00 0.00 88 1012.5
20260506114258 15 33 3.2 27.4 0.00 0.00 0.00 88 1012.4
20260506114201 15 25 6.4 27.4 0.00 0.00 0.00 88 1012.4
20260506114106 15 21 9.7 27.4 0.00 0.00 0.00 88 1012.4
20260506114029 15 8 12.9 27.4 0.00 0.00 0.00 88 1012.4
20260506113931 15 355 8.0 29.0 0.00 0.00 0.00 88 1012.5
20260506113758 15 50 3.2 17.7 0.00 0.00 0.00 88 1012.5
20260506113721 15 23 6.4 17.7 0.00 0.00 0.00 88 1012.5
20260506113604 15 336 4.8 17.7 0.00 0.00 0.00 88 1012.5
20260506113507 15 32 1.6 16.1 0.00 0.00 0.00 89 1012.5
20260506113430 15 12 3.2 16.1 0.00 0.00 0.00 89 1012.5
20260506113312 15 41 3.2 17.7 0.00 0.00 0.00 89 1012.5
20260506113155 15 16 4.8 19.3 0.00 0.00 0.00 89 1012.6
20260506113104 15 70 3.2 19.3 0.00 0.00 0.00 89 1012.5
20260506113006 15 319 1.6 19.3 0.00 0.00 0.00 89 1012.5
20260506112910 15 55 4.8 19.3 0.00 0.00 0.00 89 1012.5
20260506112813 15 15 6.4 19.3 0.00 0.00 0.00 89 1012.6
20260506112657 15 6 4.8 19.3 0.00 0.00 0.00 89 1012.5
20260506112600 15 34 8.0 19.3 0.00 0.00 0.00 89 1012.5
20260506112507 15 25 11.3 19.3 0.00 0.00 0.00 89 1012.5
20260506112410 15 41 11.3 19.3 0.00 0.00 0.00 89 1012.5
20260506112315 15 19 9.7 19.3 0.00 0.00 0.00 89 1012.5
20260506112157 15 16 6.4 19.3 0.00 0.00 0.00 89 1012.5
20260506112102 14 41 4.8 19.3 0.00 0.00 0.00 89 1012.4
20260506112004 14 345 4.8 19.3 0.00 0.00 0.00 90 1012.5
20260506111908 14 39 4.8 19.3 0.00 0.00 0.00 90 1012.5
20260506111755 14 5 1.6 19.3 0.00 0.00 0.00 90 1012.5
20260506111658 14 47 1.6 19.3 0.00 0.00 0.00 90 1012.4
20260506111623 14 51 3.2 19.3 0.00 0.00 0.00 90 1012.3
20260506111504 14 350 6.4 19.3 0.00 0.00 0.00 90 1012.4
20260506111407 14 49 4.8 19.3 0.00 0.00 0.00 91 1012.4
20260506111332 14 18 3.2 16.1 0.00 0.00 0.00 91 1012.4
20260506111157 14 123 4.8 11.3 0.00 0.00 0.00 91 1012.4
20260506111102 14 20 4.8 11.3 0.00 0.00 0.00 91 1012.3
20260506111004 13 353 3.2 11.3 0.00 0.00 0.00 91 1012.3
20260506110907 13 317 4.8 11.3 0.00 0.00 0.00 91 1012.3
20260506110831 13 16 6.4 11.3 0.00 0.00 0.00 91 1012.3
20260506110734 13 40 3.2 12.9 0.00 0.00 0.00 91 1012.4
20260506110617 13 49 3.2 11.3 0.00 0.00 0.00 91 1012.3
20260506110519 13 341 3.2 14.5 0.00 0.00 0.00 91 1012.3
20260506110405 13 40 1.6 14.5 0.00 0.00 0.00 91 1012.4
20260506110309 13 44 1.6 14.5 0.00 0.00 0.00 91 1012.4
20260506110212 13 51 1.6 14.5 0.00 0.00 0.00 91 1012.4
20260506110126 13 46 1.6 14.5 0.00 0.00 0.00 91 1012.3
20260506110011 13 28 3.2 14.5 0.00 0.00 0.00 91 1012.4
20260506105855 13 13 1.6 14.5 0.00 0.00 0.00 91 1012.4
20260506105819 13 13 3.2 14.5 0.00 0.00 0.00 91 1012.4
20260506105705 13 23 4.8 14.5 0.00 0.00 0.00 91 1012.4
20260506105610 13 345 4.8 16.1 0.00 0.00 0.00 91 1012.3
20260506105512 13 47 1.6 11.3 0.00 0.00 0.00 91 1012.3
20260506105355 13 41 3.2 17.7 0.00 0.00 0.00 91 1012.4
20260506105259 13 44 3.2 17.7 0.00 0.00 0.00 91 1012.4
20260506105223 13 74 1.6 17.7 0.00 0.00 0.00 91 1012.4
20260506105109 13 11 4.8 17.7 0.00 0.00 0.00 91 1012.3
20260506105012 13 351 3.2 17.7 0.00 0.00 0.00 91 1012.4
20260506104855 13 22 1.6 17.7 0.00 0.00 0.00 91 1012.4
20260506104758 13 58 0.0 17.7 0.00 0.00 0.00 91 1012.4
20260506104723 13 34 1.6 17.7 0.00 0.00 0.00 91 1012.4
20260506104627 13 29 4.8 17.7 0.00 0.00 0.00 91 1012.4
20260506104509 13 349 4.8 19.3 0.00 0.00 0.00 91 1012.4
20260506104356 13 108 3.2 12.9 0.00 0.00 0.00 91 1012.4
20260506104259 13 360 1.6 14.5 0.00 0.00 0.00 91 1012.4
20260506104203 13 35 3.2 14.5 0.00 0.00 0.00 91 1012.4
20260506104107 13 18 1.6 14.5 0.00 0.00 0.00 91 1012.5
20260506104009 13 15 1.6 14.5 0.00 0.00 0.00 91 1012.5
20260506103913 13 15 1.6 14.5 0.00 0.00 0.00 91 1012.4
20260506103800 13 59 1.6 14.5 0.00 0.00 0.00 91 1012.5
20260506103703 13 16 4.8 14.5 0.00 0.00 0.00 91 1012.5
20260506103628 13 356 4.8 14.5 0.00 0.00 0.00 91 1012.5
20260506103509 13 58 4.8 14.5 0.00 0.00 0.00 91 1012.4
20260506103412 13 360 3.2 12.9 0.00 0.00 0.00 91 1012.4
20260506103256 13 352 6.4 12.9 0.00 0.00 0.00 91 1012.4
20260506103203 13 340 4.8 12.9 0.00 0.00 0.00 91 1012.5
20260506103107 13 40 1.6 12.9 0.00 0.00 0.00 90 1012.4
20260506103029 13 39 1.6 12.9 0.00 0.00 0.00 90 1012.4
20260506102912 13 40 3.2 12.9 0.00 0.00 0.00 90 1012.3
20260506102815 13 72 1.6 14.5 0.00 0.00 0.00 90 1012.3
20260506102718 13 47 0.0 11.3 0.00 0.00 0.00 90 1012.4
20260506102602 13 69 3.2 11.3 0.00 0.00 0.00 90 1012.4
20260506102524 13 8 6.4 11.3 0.00 0.00 0.00 90 1012.3
20260506102427 13 265 6.4 12.9 0.00 0.00 0.00 90 1012.3
20260506102333 13 62 4.8 12.9 0.00 0.00 0.00 90 1012.3
20260506102155 13 9 3.2 12.9 0.00 0.00 0.00 90 1012.3
20260506102100 13 62 3.2 12.9 0.00 0.00 0.00 90 1012.3
20260506102002 13 17 3.2 12.9 0.00 0.00 0.00 90 1012.4
20260506101906 13 41 4.8 16.1 0.00 0.00 0.00 90 1012.4
20260506101809 13 37 3.2 16.1 0.00 0.00 0.00 90 1012.4
20260506101657 13 9 4.8 16.1 0.00 0.00 0.00 90 1012.3
20260506101620 13 28 6.4 16.1 0.00 0.00 0.00 90 1012.3
20260506101523 13 29 3.2 16.1 0.00 0.00 0.00 90 1012.4
20260506101406 13 37 1.6 17.7 0.00 0.00 0.00 90 1012.4
20260506101309 13 37 4.8 19.3 0.00 0.00 0.00 90 1012.3
20260506101213 13 44 4.8 19.3 0.00 0.00 0.00 90 1012.4
20260506101056 13 19 3.2 19.3 0.00 0.00 0.00 90 1012.3
20260506101023 13 352 4.8 19.3 0.00 0.00 0.00 90 1012.3
20260506100905 13 42 4.8 19.3 0.00 0.00 0.00 90 1012.3
20260506100809 13 46 8.0 19.3 0.00 0.00 0.00 90 1012.3
20260506100713 13 18 9.7 19.3 0.00 0.00 0.00 90 1012.3
20260506100616 13 37 8.0 19.3 0.00 0.00 0.00 90 1012.2
20260506100457 13 359 6.4 17.7 0.00 0.00 0.00 90 1012.3
20260506100401 13 70 4.8 17.7 0.00 0.00 0.00 90 1012.2
20260506100309 13 342 3.2 17.7 0.00 0.00 0.00 90 1012.2
20260506100212 13 312 0.0 17.7 0.00 0.00 0.00 90 1012.2
20260506100128 13 39 0.0 17.7 0.00 0.00 0.00 90 1012.2
20260506100012 13 67 3.2 17.7 0.00 0.00 0.00 90 1012.1
20260506095855 13 19 8.0 17.7 0.00 0.00 0.00 90 1012.1
20260506095759 13 350 8.0 20.9 0.00 0.00 0.00 90 1012.2
20260506095707 13 25 9.7 27.4 0.00 0.00 0.00 90 1012.1
20260506095610 13 37 4.8 27.4 0.00 0.00 0.00 90 1012.1
20260506095512 13 354 3.2 27.4 0.00 0.00 0.00 90 1012.1
20260506095356 13 357 4.8 27.4 0.00 0.00 0.00 90 1012.2
20260506095259 13 350 8.0 27.4 0.00 0.00 0.00 90 1012.2
20260506095203 13 312 9.7 27.4 0.00 0.00 0.00 90 1012.1
20260506095110 13 32 8.0 27.4 0.00 0.00 0.00 90 1012.2
20260506095013 13 359 6.4 27.4 0.00 0.00 0.00 90 1012.1
20260506094856 13 345 3.2 24.1 0.00 0.00 0.00 90 1012.1
20260506094820 13 4 1.6 16.1 0.00 0.00 0.00 90 1012.1
20260506094702 13 21 0.0 16.1 0.00 0.00 0.00 90 1012.1
20260506094607 13 63 1.6 16.1 0.00 0.00 0.00 90 1012.1
20260506094513 13 44 3.2 16.1 0.00 0.00 0.00 90 1012.1
20260506094357 13 45 3.2 16.1 0.00 0.00 0.00 89 1012.1
20260506094300 13 49 6.4 16.1 0.00 0.00 0.00 90 1012.1
20260506094204 13 15 6.4 19.3 0.00 0.00 0.00 90 1012.0
20260506094108 13 18 3.2 12.9 0.00 0.00 0.00 90 1012.0
20260506094011 13 5 3.2 12.9 0.00 0.00 0.00 89 1012.1
20260506093858 13 25 4.8 12.9 0.00 0.00 0.00 90 1012.1
20260506093801 13 336 3.2 12.9 0.00 0.00 0.00 89 1012.1
20260506093705 13 31 3.2 12.9 0.00 0.00 0.00 90 1012.1
20260506093629 13 30 4.8 12.9 0.00 0.00 0.00 90 1012.2
20260506093510 13 354 6.4 12.9 0.00 0.00 0.00 90 1012.2
20260506093414 13 35 6.4 14.5 0.00 0.00 0.00 90 1012.1
20260506093301 13 30 3.2 14.5 0.00 0.00 0.00 89 1012.1
20260506093204 13 12 3.2 14.5 0.00 0.00 0.00 89 1012.1
20260506093108 13 32 3.2 16.1 0.00 0.00 0.00 89 1012.1
20260506093011 13 25 3.2 16.1 0.00 0.00 0.00 89 1012.2
20260506092854 14 340 3.2 16.1 0.00 0.00 0.00 89 1012.2
20260506092757 14 32 1.6 16.1 0.00 0.00 0.00 89 1012.2
20260506092705 14 27 0.0 16.1 0.00 0.00 0.00 89 1012.2
20260506092608 14 25 3.2 16.1 0.00 0.00 0.00 89 1012.2
20260506092511 14 37 4.8 17.7 0.00 0.00 0.00 89 1012.2
20260506092354 14 32 4.8 17.7 0.00 0.00 0.00 89 1012.1
20260506092258 14 40 6.4 17.7 0.00 0.00 0.00 89 1012.1
20260506092201 14 16 4.8 27.4 0.00 0.00 0.00 89 1012.1
20260506092125 14 15 4.8 27.4 0.00 0.00 0.00 89 1012.1
20260506092010 14 350 6.4 27.4 0.00 0.00 0.00 89 1012.1
20260506091854 14 23 3.2 27.4 0.00 0.00 0.00 89 1012.1
20260506091757 14 15 4.8 27.4 0.00 0.00 0.00 89 1012.1
20260506091721 14 340 4.8 27.4 0.00 0.00 0.00 89 1012.1
20260506091605 14 63 1.6 27.4 0.00 0.00 0.00 89 1012.1
20260506091507 14 25 8.0 27.4 0.00 0.00 0.00 89 1012.1
20260506091354 14 28 8.0 25.7 0.00 0.00 0.00 89 1012.0
20260506091318 14 22 4.8 17.7 0.00 0.00 0.00 89 1012.1
20260506091201 14 54 3.2 17.7 0.00 0.00 0.00 89 1012.1
20260506091125 14 58 3.2 17.7 0.00 0.00 0.00 89 1012.1
20260506091006 14 338 3.2 17.7 0.00 0.00 0.00 89 1012.1
20260506090910 14 73 3.2 17.7 0.00 0.00 0.00 89 1012.1
20260506090834 14 6 4.8 17.7 0.00 0.00 0.00 89 1012.2
20260506090701 14 321 3.2 17.7 0.00 0.00 0.00 89 1012.1
20260506090605 14 61 4.8 17.7 0.00 0.00 0.00 89 1012.1
20260506090528 14 40 6.4 17.7 0.00 0.00 0.00 89 1012.1
20260506090411 14 33 4.8 19.3 0.00 0.00 0.00 89 1012.2
20260506090254 14 23 4.8 19.3 0.00 0.00 0.00 88 1012.1
20260506090217 14 79 3.2 19.3 0.00 0.00 0.00 88 1012.2
20260506090153 14 40 3.2 19.3 0.00 0.00 0.00 88 1012.2
20260506090000 14 64 4.8 19.3 0.00 0.00 0.00 88 1012.2
20260506085904 14 33 8.0 19.3 0.00 0.00 0.00 88 1012.3
20260506085808 14 32 8.0 19.3 0.00 0.00 0.00 88 1012.3
20260506085711 14 42 6.4 19.3 0.00 0.00 0.00 88 1012.3
20260506085635 14 343 6.4 19.3 0.00 0.00 0.00 88 1012.3
20260506085456 14 8 6.4 20.9 0.00 0.00 0.00 88 1012.3
20260506085420 14 49 4.8 16.1 0.00 0.00 0.00 88 1012.3
20260506085323 14 44 1.6 12.9 0.00 0.00 0.00 88 1012.3
20260506085230 14 37 1.6 12.9 0.00 0.00 0.00 88 1012.3
20260506085133 14 58 3.2 14.5 0.00 0.00 0.00 88 1012.3
20260506084954 14 13 4.8 14.5 0.00 0.00 0.00 88 1012.3
20260506084858 14 74 3.2 14.5 0.00 0.00 0.00 88 1012.3
20260506084802 14 39 3.2 14.5 0.00 0.00 0.00 88 1012.3
20260506084705 14 38 4.8 14.5 0.00 0.00 0.00 88 1012.3
20260506084609 14 39 3.2 14.5 0.00 0.00 0.00 88 1012.3
20260506084455 14 47 8.0 16.1 0.00 0.00 0.00 88 1012.3
20260506084358 14 29 8.0 22.5 0.00 0.00 0.00 88 1012.3
20260506084302 14 337 4.8 22.5 0.00 0.00 0.00 88 1012.4
20260506084226 14 37 1.6 22.5 0.00 0.00 0.00 88 1012.3
20260506084110 14 47 4.8 22.5 0.00 0.00 0.00 88 1012.3
20260506084012 14 21 4.8 22.5 0.00 0.00 0.00 88 1012.3
20260506083859 14 23 4.8 22.5 0.00 0.00 0.00 88 1012.3
20260506083803 14 347 8.0 22.5 0.00 0.00 0.00 88 1012.3
20260506083706 14 46 8.0 22.5 0.00 0.00 0.00 88 1012.3
20260506083610 14 25 9.7 22.5 0.00 0.00 0.00 88 1012.3
20260506083512 14 26 6.4 24.1 0.00 0.00 0.00 88 1012.3
20260506083356 14 80 4.8 24.1 0.00 0.00 0.00 87 1012.3
20260506083303 14 50 4.8 24.1 0.00 0.00 0.00 87 1012.3
20260506083207 14 1 3.2 24.1 0.00 0.00 0.00 87 1012.3
20260506083111 14 3 3.2 24.1 0.00 0.00 0.00 87 1012.3
20260506083014 14 21 1.6 24.1 0.00 0.00 0.00 87 1012.3
20260506082857 14 3 8.0 24.1 0.00 0.00 0.00 87 1012.3
20260506082800 14 9 6.4 24.1 0.00 0.00 0.00 87 1012.3
20260506082707 14 348 4.8 24.1 0.00 0.00 0.00 87 1012.3
20260506082612 14 58 4.8 16.1 0.00 0.00 0.00 87 1012.3
20260506082534 14 342 6.4 16.1 0.00 0.00 0.00 87 1012.3
20260506082357 14 353 8.0 16.1 0.00 0.00 0.00 87 1012.3
20260506082300 14 29 4.8 17.7 0.00 0.00 0.00 87 1012.3
20260506082204 14 348 3.2 14.5 0.00 0.00 0.00 87 1012.3
20260506082111 14 63 3.2 14.5 0.00 0.00 0.00 87 1012.3
20260506082014 14 59 1.6 14.5 0.00 0.00 0.00 87 1012.3
20260506081857 14 40 3.2 14.5 0.00 0.00 0.00 87 1012.3
20260506081821 14 354 3.2 14.5 0.00 0.00 0.00 87 1012.3
20260506081703 14 35 1.6 12.9 0.00 0.00 0.00 87 1012.3
20260506081607 14 22 3.2 16.1 0.00 0.00 0.00 87 1012.3
20260506081509 14 1 3.2 16.1 0.00 0.00 0.00 87 1012.3
20260506081357 14 63 1.6 16.1 0.00 0.00 0.00 87 1012.3
20260506081300 14 18 1.6 16.1 0.00 0.00 0.00 87 1012.3
20260506081203 15 39 3.2 16.1 0.00 0.00 0.00 87 1012.3
20260506081107 15 39 3.2 16.1 0.00 0.00 0.00 87 1012.3
20260506081010 15 10 3.2 16.1 0.00 0.00 0.00 86 1012.3
20260506080857 15 44 4.8 16.1 0.00 0.00 0.00 86 1012.3
20260506080801 15 17 3.2 16.1 0.00 0.00 0.00 86 1012.3
20260506080704 15 71 4.8 16.1 0.00 0.00 0.00 86 1012.3
20260506080608 15 32 3.2 16.1 0.00 0.00 0.00 86 1012.2
20260506080510 15 28 4.8 16.1 0.00 0.00 0.00 86 1012.3
20260506080414 15 62 6.4 16.1 0.00 0.00 0.00 86 1012.3
20260506080301 15 85 3.2 16.1 0.00 0.00 0.00 86 1012.3
20260506080204 15 31 3.2 16.1 0.00 0.00 0.00 86 1012.3
20260506080119 15 40 4.8 16.1 0.00 0.00 0.00 86 1012.3
20260506073501 15 36 6.4 20.9 0.00 0.00 0.00 85 1012.4
20260506073401 15 13 6.4 25.7 0.00 0.00 0.00 85 1012.3
20260506073305 15 50 3.2 25.7 0.00 0.00 0.00 85 1012.4
20260506073208 15 44 1.6 25.7 0.00 0.00 0.00 85 1012.3
20260506073056 15 44 8.0 25.7 0.00 0.00 0.00 85 1012.3
20260506072958 15 67 6.4 25.7 0.00 0.00 0.00 85 1012.2
20260506072922 15 44 1.6 25.7 0.00 0.00 0.00 85 1012.3
20260506072805 15 74 1.6 25.7 0.00 0.00 0.00 85 1012.3
20260506072708 15 342 8.0 25.7 0.00 0.00 0.00 85 1012.3
20260506072613 15 40 11.3 25.7 0.00 0.00 0.00 85 1012.3
20260506072459 15 321 8.0 19.3 0.00 0.00 0.00 85 1012.3
20260506072402 15 25 3.2 17.7 0.00 0.00 0.00 85 1012.3
20260506072306 15 76 3.2 17.7 0.00 0.00 0.00 85 1012.2
20260506072210 15 46 1.6 17.7 0.00 0.00 0.00 85 1012.2
20260506072113 15 35 0.0 17.7 0.00 0.00 0.00 85 1012.2
20260506071955 15 64 3.2 17.7 0.00 0.00 0.00 85 1012.2
20260506071903 15 29 4.8 17.7 0.00 0.00 0.00 85 1012.2
20260506071827 15 343 6.4 17.7 0.00 0.00 0.00 85 1012.2
20260506071709 15 47 6.4 17.7 0.00 0.00 0.00 85 1012.2
20260506071613 15 30 4.8 16.1 0.00 0.00 0.00 85 1012.2
20260506071455 15 79 3.2 19.3 0.00 0.00 0.00 85 1012.2
20260506071358 15 48 3.2 24.1 0.00 0.00 0.00 85 1012.2
20260506071322 15 329 4.8 24.1 0.00 0.00 0.00 85 1012.1
20260506071229 15 44 4.8 24.1 0.00 0.00 0.00 85 1012.1
20260506071112 15 22 1.6 24.1 0.00 0.00 0.00 85 1012.1
20260506070954 15 75 3.2 24.1 0.00 0.00 0.00 85 1012.1
20260506070917 15 53 4.8 24.1 0.00 0.00 0.00 85 1012.1
20260506070800 15 25 6.4 24.1 0.00 0.00 0.00 85 1012.1
20260506070703 15 33 8.0 24.1 0.00 0.00 0.00 85 1012.2
20260506070608 15 39 4.8 24.1 0.00 0.00 0.00 85 1012.1
20260506070454 15 25 3.2 16.1 0.00 0.00 0.00 85 1012.1
20260506070417 15 69 3.2 16.1 0.00 0.00 0.00 85 1012.1
20260506070320 15 84 1.6 16.1 0.00 0.00 0.00 85 1012.1
20260506070202 15 63 4.8 25.7 0.00 0.00 0.00 85 1012.1
20260506070117 15 30 8.0 25.7 0.00 0.00 0.00 85 1012.0
20260506062420 15 88 4.8 19.3 0.00 0.00 0.00 82 1012.1
20260506062323 15 56 6.4 19.3 0.00 0.00 0.00 82 1012.1
20260506062206 15 33 6.4 19.3 0.00 0.00 0.00 82 1012.1
20260506062109 15 32 6.4 19.3 0.00 0.00 0.00 82 1012.1
20260506062011 15 8 4.8 19.3 0.00 0.00 0.00 82 1012.1
20260506061859 15 355 6.4 22.5 0.00 0.00 0.00 82 1012.1
20260506061802 15 15 6.4 22.5 0.00 0.00 0.00 82 1012.1
20260506061706 15 336 6.4 22.5 0.00 0.00 0.00 82 1012.1
20260506061611 15 8 8.0 22.5 0.00 0.00 0.00 82 1012.1
20260506061513 15 39 6.4 22.5 0.00 0.00 0.00 82 1012.1
20260506061416 15 51 3.2 22.5 0.00 0.00 0.00 82 1012.0
20260506061303 15 338 4.8 22.5 0.00 0.00 0.00 81 1012.0
20260506061207 15 21 4.8 22.5 0.00 0.00 0.00 81 1012.1
20260506061132 15 355 9.7 24.1 0.00 0.00 0.00 81 1012.1
20260506061013 15 3 9.7 22.5 0.00 0.00 0.00 81 1012.1
20260506060916 15 33 4.8 17.7 0.00 0.00 0.00 81 1012.1
20260506060841 15 25 3.2 17.7 0.00 0.00 0.00 81 1012.1
20260506060659 15 18 4.8 17.7 0.00 0.00 0.00 81 1012.1
20260506060603 15 328 3.2 17.7 0.00 0.00 0.00 81 1012.2
20260506060509 15 33 3.2 17.7 0.00 0.00 0.00 81 1012.1
20260506060413 15 42 6.4 17.7 0.00 0.00 0.00 81 1012.1
20260506060316 15 69 8.0 17.7 0.00 0.00 0.00 81 1012.2
20260506060219 15 18 8.0 17.7 0.00 0.00 0.00 81 1012.2
20260506060133 15 37 6.4 17.7 0.00 0.00 0.00 81 1012.2
20260506051358 15 331 4.8 19.3 0.00 0.00 0.00 77 1012.4
20260506051302 15 25 8.0 20.9 0.00 0.00 0.00 77 1012.4
20260506051206 15 13 6.4 19.3 0.00 0.00 0.00 77 1012.4
20260506051109 15 21 6.4 17.7 0.00 0.00 0.00 77 1012.5
20260506050956 16 342 4.8 17.7 0.00 0.00 0.00 77 1012.5
20260506050859 16 29 3.2 17.7 0.00 0.00 0.00 77 1012.5
20260506050824 16 342 3.2 17.7 0.00 0.00 0.00 77 1012.5
20260506050707 16 33 6.4 17.7 0.00 0.00 0.00 77 1012.5
20260506050611 16 32 8.0 17.7 0.00 0.00 0.00 77 1012.4
20260506050513 16 15 6.4 14.5 0.00 0.00 0.00 77 1012.5
20260506050356 16 22 4.8 12.9 0.00 0.00 0.00 77 1012.5
20260506050324 16 44 4.8 12.9 0.00 0.00 0.00 77 1012.5
20260506050206 16 356 1.6 12.9 0.00 0.00 0.00 76 1012.5
20260506050121 16 65 3.2 16.1 0.00 0.00 0.00 76 1012.5
20260506045100 16 18 8.0 17.7 0.00 0.00 0.00 76 1012.6
20260506045007 16 27 4.8 17.7 0.00 0.00 0.00 76 1012.5
20260506044910 16 328 4.8 20.9 0.00 0.00 0.00 76 1012.5
20260506044813 16 30 3.2 17.7 0.00 0.00 0.00 76 1012.6
20260506044717 15 32 4.8 17.7 0.00 0.00 0.00 76 1012.5
20260506044600 15 101 6.4 25.7 0.00 0.00 0.00 76 1012.6
20260506044502 15 317 6.4 25.7 0.00 0.00 0.00 76 1012.6
20260506044406 15 95 6.4 25.7 0.00 0.00 0.00 76 1012.5
20260506044313 15 23 4.8 25.7 0.00 0.00 0.00 76 1012.6
20260506044157 15 58 8.0 25.7 0.00 0.00 0.00 76 1012.6
20260506044101 15 33 9.7 25.7 0.00 0.00 0.00 76 1012.6
20260506044024 15 328 9.7 25.7 0.00 0.00 0.00 76 1012.6
20260506043907 15 16 8.0 25.7 0.00 0.00 0.00 76 1012.6
20260506043830 15 12 6.4 25.7 0.00 0.00 0.00 76 1012.5
20260506043733 15 32 4.8 16.1 0.00 0.00 0.00 76 1012.5
20260506043559 15 53 6.4 16.1 0.00 0.00 0.00 76 1012.6
20260506043502 15 360 9.7 16.1 0.00 0.00 0.00 76 1012.6
20260506043405 15 357 9.7 16.1 0.00 0.00 0.00 76 1012.5
20260506043309 15 22 8.0 12.9 0.00 0.00 0.00 76 1012.6
20260506043212 15 29 6.4 11.3 0.00 0.00 0.00 76 1012.6
20260506043057 15 37 3.2 11.3 0.00 0.00 0.00 76 1012.6
20260506043003 15 53 1.6 20.9 0.00 0.00 0.00 76 1012.6
20260506042907 15 44 1.6 20.9 0.00 0.00 0.00 76 1012.6
20260506042810 15 41 1.6 20.9 0.00 0.00 0.00 76 1012.6
20260506042653 15 28 1.6 20.9 0.00 0.00 0.00 76 1012.6
20260506042557 15 345 3.2 20.9 0.00 0.00 0.00 75 1012.6
20260506042459 15 353 4.8 20.9 0.00 0.00 0.00 75 1012.6
20260506042406 15 352 4.8 22.5 0.00 0.00 0.00 75 1012.6
20260506042309 15 60 4.8 22.5 0.00 0.00 0.00 75 1012.6
20260506042213 15 8 6.4 22.5 0.00 0.00 0.00 75 1012.6
20260506042057 15 47 3.2 22.5 0.00 0.00 0.00 75 1012.6
20260506041959 15 42 3.2 22.5 0.00 0.00 0.00 75 1012.6
20260506041923 15 44 4.8 22.5 0.00 0.00 0.00 75 1012.6
20260506041826 15 12 6.4 22.5 0.00 0.00 0.00 75 1012.6
20260506041712 15 331 9.7 22.5 0.00 0.00 0.00 75 1012.5
20260506041556 15 23 8.0 22.5 0.00 0.00 0.00 75 1012.5
20260506041458 15 42 6.4 22.5 0.00 0.00 0.00 75 1012.5
20260506041402 15 13 4.8 22.5 0.00 0.00 0.00 75 1012.5
20260506041305 15 79 6.4 22.5 0.00 0.00 0.00 75 1012.5
20260506041209 15 79 8.0 22.5 0.00 0.00 0.00 75 1012.5
20260506041056 15 22 4.8 22.5 0.00 0.00 0.00 75 1012.6
20260506040958 15 37 6.4 22.5 0.00 0.00 0.00 75 1012.5
20260506040902 15 338 9.7 22.5 0.00 0.00 0.00 75 1012.5
20260506040805 15 49 8.0 22.5 0.00 0.00 0.00 75 1012.5
20260506040709 15 33 4.8 25.7 0.00 0.00 0.00 75 1012.5
20260506040556 15 37 4.8 17.7 0.00 0.00 0.00 75 1012.5
20260506040519 15 51 8.0 17.7 0.00 0.00 0.00 75 1012.6
20260506040421 15 342 6.4 17.7 0.00 0.00 0.00 75 1012.5
20260506040304 15 10 6.4 17.7 0.00 0.00 0.00 75 1012.6
20260506040208 15 9 6.4 17.7 0.00 0.00 0.00 74 1012.6
20260506040143 15 33 4.8 17.7 0.00 0.00 0.00 75 1012.5
20260506040007 15 33 3.2 17.7 0.00 0.00 0.00 74 1012.5
20260506035930 15 47 3.2 17.7 0.00 0.00 0.00 74 1012.5
20260506035757 15 347 3.2 17.7 0.00 0.00 0.00 74 1012.5
20260506035701 15 72 4.8 17.7 0.00 0.00 0.00 74 1012.5
20260506035625 15 41 4.8 17.7 0.00 0.00 0.00 74 1012.5
20260506035507 15 56 3.2 17.7 0.00 0.00 0.00 74 1012.5
20260506035410 15 339 8.0 17.7 0.00 0.00 0.00 74 1012.5
20260506035254 15 323 8.0 17.7 0.00 0.00 0.00 74 1012.5
20260506035157 15 9 3.2 20.9 0.00 0.00 0.00 74 1012.5
20260506035105 15 29 4.8 20.9 0.00 0.00 0.00 74 1012.4
20260506035028 15 38 8.0 20.9 0.00 0.00 0.00 74 1012.4
20260506034910 15 60 6.4 20.9 0.00 0.00 0.00 74 1012.4
20260506034813 15 335 4.8 20.9 0.00 0.00 0.00 74 1012.5
20260506034657 15 26 4.8 20.9 0.00 0.00 0.00 74 1012.5
20260506034601 15 37 6.4 20.9 0.00 0.00 0.00 74 1012.6
20260506034508 15 28 8.0 20.9 0.00 0.00 0.00 74 1012.5
20260506034432 15 34 6.4 24.1 0.00 0.00 0.00 74 1012.5
20260506034254 15 41 3.2 16.1 0.00 0.00 0.00 74 1012.5
20260506034158 15 28 4.8 16.1 0.00 0.00 0.00 74 1012.5
20260506034101 15 52 6.4 17.7 0.00 0.00 0.00 73 1012.5
20260506034004 15 37 6.4 17.7 0.00 0.00 0.00 73 1012.4
20260506033907 15 58 6.4 20.9 0.00 0.00 0.00 73 1012.5
20260506033754 15 37 4.8 20.9 0.00 0.00 0.00 73 1012.4
20260506033658 15 59 3.2 20.9 0.00 0.00 0.00 73 1012.5
20260506033602 15 353 3.2 20.9 0.00 0.00 0.00 73 1012.4
20260506033504 15 28 8.0 20.9 0.00 0.00 0.00 73 1012.4
20260506033407 15 33 6.4 20.9 0.00 0.00 0.00 73 1012.4
20260506033255 15 15 4.8 20.9 0.00 0.00 0.00 73 1012.4
20260506033158 15 13 8.0 20.9 0.00 0.00 0.00 73 1012.4
20260506033123 15 347 8.0 19.3 0.00 0.00 0.00 73 1012.4
20260506033005 15 41 8.0 19.3 0.00 0.00 0.00 73 1012.4
20260506032908 15 27 8.0 19.3 0.00 0.00 0.00 73 1012.4
20260506032812 15 28 6.4 16.1 0.00 0.00 0.00 73 1012.3
20260506032655 15 66 4.8 16.1 0.00 0.00 0.00 73 1012.3
20260506032623 15 18 3.2 16.1 0.00 0.00 0.00 73 1012.3
20260506032409 16 1 3.2 16.1 0.00 0.00 0.00 73 1012.3
20260506032312 16 59 3.2 16.1 0.00 0.00 0.00 72 1012.4
20260506032156 16 14 4.8 16.1 0.00 0.00 0.00 72 1012.3
20260506032059 16 352 3.2 17.7 0.00 0.00 0.00 72 1012.3
20260506032006 16 44 1.6 16.1 0.00 0.00 0.00 72 1012.3
20260506031909 16 11 3.2 16.1 0.00 0.00 0.00 72 1012.4
20260506031812 16 58 6.4 16.1 0.00 0.00 0.00 72 1012.3
20260506031655 16 354 3.2 16.1 0.00 0.00 0.00 72 1012.3
20260506031620 16 340 3.2 16.1 0.00 0.00 0.00 72 1012.3
20260506031501 16 42 4.8 16.1 0.00 0.00 0.00 73 1012.4
20260506031405 15 25 6.4 16.1 0.00 0.00 0.00 72 1012.3
20260506031312 15 46 4.8 16.1 0.00 0.00 0.00 72 1012.3
20260506031156 16 353 3.2 16.1 0.00 0.00 0.00 72 1012.3
20260506031059 16 50 4.8 20.9 0.00 0.00 0.00 72 1012.3
20260506031022 16 28 3.2 20.9 0.00 0.00 0.00 72 1012.2
20260506030925 16 15 3.2 20.9 0.00 0.00 0.00 72 1012.3
20260506030807 16 35 3.2 20.9 0.00 0.00 0.00 72 1012.3
20260506030654 16 40 3.2 20.9 0.00 0.00 0.00 72 1012.3
20260506030620 16 47 6.4 20.9 0.00 0.00 0.00 71 1012.3
20260506030501 16 39 8.0 20.9 0.00 0.00 0.00 71 1012.3
20260506030404 16 352 6.4 20.9 0.00 0.00 0.00 71 1012.3
20260506030308 16 337 4.8 20.9 0.00 0.00 0.00 71 1012.3
20260506030212 16 61 6.4 22.5 0.00 0.00 0.00 71 1012.3
20260506030126 16 29 4.8 16.1 0.00 0.00 0.00 71 1012.3
20260506025955 16 59 1.6 14.5 0.00 0.00 0.00 71 1012.4
20260506025858 16 23 3.2 14.5 0.00 0.00 0.00 71 1012.4
20260506025801 16 57 3.2 20.9 0.00 0.00 0.00 71 1012.3
20260506025705 16 32 1.6 20.9 0.00 0.00 0.00 71 1012.3
20260506025609 16 41 4.8 20.9 0.00 0.00 0.00 71 1012.4
20260506025512 16 70 4.8 20.9 0.00 0.00 0.00 71 1012.3
20260506025358 16 11 4.8 20.9 0.00 0.00 0.00 70 1012.4
20260506025305 16 341 6.4 20.9 0.00 0.00 0.00 71 1012.3
20260506025206 16 353 8.0 20.9 0.00 0.00 0.00 70 1012.4
20260506025110 16 30 9.7 20.9 0.00 0.00 0.00 70 1012.3
20260506025012 16 58 8.0 20.9 0.00 0.00 0.00 70 1012.3
20260506024855 16 52 3.2 20.9 0.00 0.00 0.00 70 1012.4
20260506024802 16 55 3.2 20.9 0.00 0.00 0.00 70 1012.3
20260506024706 16 42 6.4 20.9 0.00 0.00 0.00 70 1012.3
20260506024631 16 30 8.0 20.9 0.00 0.00 0.00 70 1012.3
20260506024533 16 348 9.7 20.9 0.00 0.00 0.00 70 1012.3
20260506024355 16 56 8.0 22.5 0.00 0.00 0.00 70 1012.4
20260506024319 16 59 3.2 20.9 0.00 0.00 0.00 70 1012.3
20260506024201 16 77 1.6 20.9 0.00 0.00 0.00 70 1012.3
20260506024109 16 37 4.8 20.9 0.00 0.00 0.00 70 1012.3
20260506024011 16 42 4.8 20.9 0.00 0.00 0.00 70 1012.2
20260506023855 16 29 4.8 20.9 0.00 0.00 0.00 71 1012.3
20260506023758 16 22 9.7 20.9 0.00 0.00 0.00 71 1012.3
20260506023701 16 34 9.7 19.3 0.00 0.00 0.00 71 1012.3
20260506023606 16 44 6.4 19.3 0.00 0.00 0.00 71 1012.3
20260506023513 16 347 3.2 19.3 0.00 0.00 0.00 71 1012.3
20260506023356 16 353 4.8 19.3 0.00 0.00 0.00 71 1012.3
20260506023259 16 23 4.8 19.3 0.00 0.00 0.00 71 1012.4
20260506023223 16 335 4.8 19.3 0.00 0.00 0.00 71 1012.3
20260506023106 16 63 3.2 19.3 0.00 0.00 0.00 71 1012.3
20260506023008 16 44 6.4 19.3 0.00 0.00 0.00 71 1012.3
20260506022856 16 33 4.8 20.9 0.00 0.00 0.00 71 1012.4
20260506022759 16 348 1.6 14.5 0.00 0.00 0.00 71 1012.3
20260506022702 16 333 4.8 14.5 0.00 0.00 0.00 71 1012.4
20260506022607 16 22 4.8 14.5 0.00 0.00 0.00 71 1012.4
20260506022509 16 20 1.6 20.9 0.00 0.00 0.00 71 1012.4
20260506022413 16 10 3.2 20.9 0.00 0.00 0.00 71 1012.4
20260506022300 16 35 4.8 20.9 0.00 0.00 0.00 71 1012.3
20260506022204 16 51 3.2 20.9 0.00 0.00 0.00 71 1012.3
20260506022108 16 13 1.6 20.9 0.00 0.00 0.00 71 1012.4
20260506022010 16 16 4.8 20.9 0.00 0.00 0.00 71 1012.3
20260506021914 16 40 4.8 20.9 0.00 0.00 0.00 71 1012.3
20260506021817 16 89 6.4 20.9 0.00 0.00 0.00 71 1012.3
20260506021659 16 4 9.7 24.1 0.00 0.00 0.00 71 1012.3
20260506021607 16 345 8.0 19.3 0.00 0.00 0.00 71 1012.4
20260506021509 16 35 4.8 19.3 0.00 0.00 0.00 71 1012.3
20260506021433 16 44 6.4 19.3 0.00 0.00 0.00 71 1012.3
20260506021256 16 12 6.4 19.3 0.00 0.00 0.00 70 1012.3
20260506021159 16 14 4.8 19.3 0.00 0.00 0.00 70 1012.2
20260506021103 16 28 8.0 19.3 0.00 0.00 0.00 70 1012.3
20260506021009 16 340 8.0 19.3 0.00 0.00 0.00 70 1012.3
20260506020913 16 315 8.0 19.3 0.00 0.00 0.00 71 1012.2
20260506020756 16 9 9.7 19.3 0.00 0.00 0.00 71 1012.2
20260506020659 16 333 8.0 17.7 0.00 0.00 0.00 71 1012.3
20260506020603 16 32 4.8 17.7 0.00 0.00 0.00 71 1012.3
20260506020526 16 65 4.8 17.7 0.00 0.00 0.00 71 1012.3
20260506020407 16 39 6.4 17.7 0.00 0.00 0.00 71 1012.3
20260506020254 16 58 3.2 17.7 0.00 0.00 0.00 70 1012.2
20260506020158 16 17 3.2 17.7 0.00 0.00 0.00 70 1012.2
20260506020113 16 45 6.4 22.5 0.00 0.00 0.00 71 1012.2
20260506015958 16 51 6.4 22.5 0.00 0.00 0.00 71 1012.3
20260506015902 16 50 4.8 22.5 0.00 0.00 0.00 71 1012.3
20260506015825 16 11 6.4 22.5 0.00 0.00 0.00 71 1012.3
20260506015728 16 44 6.4 22.5 0.00 0.00 0.00 71 1012.2
20260506015555 16 18 6.4 22.5 0.00 0.00 0.00 71 1012.2
20260506015457 16 56 4.8 22.5 0.00 0.00 0.00 71 1012.2
20260506015400 16 38 8.0 22.5 0.00 0.00 0.00 71 1012.2
20260506015306 16 51 8.0 24.1 0.00 0.00 0.00 71 1012.1
20260506015208 16 25 9.7 19.3 0.00 0.00 0.00 71 1012.1
20260506015056 16 65 9.7 19.3 0.00 0.00 0.00 71 1012.1
20260506014959 16 13 6.4 19.3 0.00 0.00 0.00 71 1012.1
20260506014902 16 320 3.2 19.3 0.00 0.00 0.00 71 1012.1
20260506014826 16 57 1.6 19.3 0.00 0.00 0.00 71 1012.2
20260506014729 16 339 3.2 19.3 0.00 0.00 0.00 71 1012.2
20260506014631 16 22 4.8 19.3 0.00 0.00 0.00 71 1012.3
20260506014513 16 47 4.8 19.3 0.00 0.00 0.00 71 1012.3
20260506014416 16 35 8.0 19.3 0.00 0.00 0.00 71 1012.3
20260506014303 16 28 8.0 19.3 0.00 0.00 0.00 71 1012.3
20260506014206 16 8 6.4 14.5 0.00 0.00 0.00 71 1012.3
20260506014110 16 47 6.4 14.5 0.00 0.00 0.00 71 1012.3
20260506014013 16 39 6.4 14.5 0.00 0.00 0.00 71 1012.3
20260506013916 16 76 6.4 14.5 0.00 0.00 0.00 71 1012.3
20260506013758 16 13 3.2 14.5 0.00 0.00 0.00 71 1012.3
20260506013722 16 13 1.6 14.5 0.00 0.00 0.00 71 1012.4
20260506013609 16 44 3.2 16.1 0.00 0.00 0.00 71 1012.4
20260506013511 16 35 6.4 22.5 0.00 0.00 0.00 71 1012.3
20260506013355 16 349 6.4 22.5 0.00 0.00 0.00 71 1012.4
20260506013258 16 359 6.4 22.5 0.00 0.00 0.00 71 1012.4
20260506013202 16 20 4.8 22.5 0.00 0.00 0.00 71 1012.4
20260506013105 16 50 4.8 22.5 0.00 0.00 0.00 71 1012.3
20260506013012 16 18 3.2 22.5 0.00 0.00 0.00 71 1012.2
20260506012855 16 76 4.8 22.5 0.00 0.00 0.00 71 1012.3
20260506012819 16 44 9.7 22.5 0.00 0.00 0.00 71 1012.3
20260506012722 16 12 9.7 22.5 0.00 0.00 0.00 71 1012.2
20260506012604 16 25 4.8 16.1 0.00 0.00 0.00 71 1012.2
20260506012507 16 76 1.6 14.5 0.00 0.00 0.00 71 1012.1
20260506012410 16 16 3.2 16.1 0.00 0.00 0.00 71 1012.1
20260506012257 16 72 6.4 16.1 0.00 0.00 0.00 71 1012.1
20260506012201 16 23 4.8 16.1 0.00 0.00 0.00 71 1012.1
20260506012105 16 39 3.2 16.1 0.00 0.00 0.00 71 1012.1
20260506012007 16 141 4.8 16.1 0.00 0.00 0.00 71 1012.1
20260506011910 16 9 6.4 16.1 0.00 0.00 0.00 71 1012.0
20260506011754 16 77 6.4 16.1 0.00 0.00 0.00 71 1012.0
20260506011702 16 13 4.8 16.1 0.00 0.00 0.00 71 1012.0
20260506011626 16 53 4.8 19.3 0.00 0.00 0.00 71 1011.9
20260506011528 16 8 4.8 19.3 0.00 0.00 0.00 71 1011.9
20260506011431 16 356 4.8 19.3 0.00 0.00 0.00 71 1011.9
20260506011334 16 345 4.8 19.3 0.00 0.00 0.00 71 1011.9
20260506011156 16 43 4.8 19.3 0.00 0.00 0.00 71 1011.9
20260506011100 16 352 4.8 19.3 0.00 0.00 0.00 71 1011.9
20260506011022 16 32 4.8 19.3 0.00 0.00 0.00 71 1011.9
20260506010909 16 336 6.4 19.3 0.00 0.00 0.00 71 1011.9
20260506010812 16 22 4.8 19.3 0.00 0.00 0.00 71 1011.9
20260506010656 16 25 3.2 12.9 0.00 0.00 0.00 71 1011.9
20260506010600 16 44 4.8 16.1 0.00 0.00 0.00 71 1011.9
20260506010503 16 32 1.6 16.1 0.00 0.00 0.00 71 1011.8
20260506010406 16 47 1.6 24.1 0.00 0.00 0.00 71 1011.9
20260506010253 16 39 3.2 24.1 0.00 0.00 0.00 70 1011.9
20260506010157 16 25 4.8 24.1 0.00 0.00 0.00 70 1011.9
20260506010132 16 10 4.8 24.1 0.00 0.00 0.00 70 1011.9
20260506005956 16 18 4.8 24.1 0.00 0.00 0.00 70 1011.9
20260506005900 16 359 3.2 24.1 0.00 0.00 0.00 70 1011.8
20260506005803 16 25 4.8 24.1 0.00 0.00 0.00 70 1011.9
20260506005711 16 29 8.0 24.1 0.00 0.00 0.00 70 1011.8
20260506005614 16 42 9.7 24.1 0.00 0.00 0.00 70 1011.8
20260506005457 16 10 8.0 24.1 0.00 0.00 0.00 70 1011.9
20260506005400 16 20 6.4 24.1 0.00 0.00 0.00 69 1011.8
20260506005305 16 48 8.0 24.1 0.00 0.00 0.00 69 1011.8
20260506005207 16 341 6.4 24.1 0.00 0.00 0.00 69 1011.8
20260506005055 16 40 1.6 24.1 0.00 0.00 0.00 69 1011.9
20260506004958 16 32 3.2 24.1 0.00 0.00 0.00 69 1011.9
20260506004901 16 58 4.8 24.1 0.00 0.00 0.00 69 1011.8
20260506004825 16 40 8.0 24.1 0.00 0.00 0.00 69 1011.9
20260506004707 16 314 6.4 22.5 0.00 0.00 0.00 69 1011.9
20260506004611 16 44 3.2 20.9 0.00 0.00 0.00 69 1011.8
20260506004458 16 47 4.8 20.9 0.00 0.00 0.00 69 1011.7
20260506004401 16 67 4.8 20.9 0.00 0.00 0.00 69 1011.7
20260506004305 16 23 6.4 20.9 0.00 0.00 0.00 69 1011.7
20260506004208 16 42 4.8 20.9 0.00 0.00 0.00 69 1011.7
20260506004113 16 29 3.2 20.9 0.00 0.00 0.00 69 1011.7
20260506003955 16 336 8.0 20.9 0.00 0.00 0.00 69 1011.7
20260506003902 16 47 8.0 20.9 0.00 0.00 0.00 69 1011.6
20260506003806 16 60 4.8 22.5 0.00 0.00 0.00 69 1011.7
20260506003730 16 55 1.6 22.5 0.00 0.00 0.00 69 1011.6
20260506003612 16 316 3.2 22.5 0.00 0.00 0.00 69 1011.6
20260506003455 16 54 6.4 22.5 0.00 0.00 0.00 69 1011.6
20260506003358 16 28 6.4 22.5 0.00 0.00 0.00 69 1011.6
20260506003323 16 76 3.2 22.5 0.00 0.00 0.00 69 1011.7
20260506003209 16 335 3.2 22.5 0.00 0.00 0.00 69 1011.6
20260506003133 16 49 8.0 22.5 0.00 0.00 0.00 69 1011.6
20260506002955 16 3 8.0 24.1 0.00 0.00 0.00 69 1011.6
20260506002919 16 40 8.0 24.1 0.00 0.00 0.00 69 1011.4
20260506002801 16 23 8.0 24.1 0.00 0.00 0.00 69 1011.6
20260506002704 16 40 8.0 24.1 0.00 0.00 0.00 70 1011.5
20260506002608 16 68 8.0 24.1 0.00 0.00 0.00 70 1011.5
20260506002454 16 326 8.0 24.1 0.00 0.00 0.00 70 1011.4
20260506002358 16 35 4.8 24.1 0.00 0.00 0.00 70 1011.4
20260506002301 16 139 6.4 24.1 0.00 0.00 0.00 70 1011.4
20260506002205 16 70 6.4 24.1 0.00 0.00 0.00 70 1011.3
20260506002108 16 40 4.8 14.5 0.00 0.00 0.00 70 1011.3
20260506002011 16 23 8.0 14.5 0.00 0.00 0.00 70 1011.2
20260506001858 16 345 6.4 14.5 0.00 0.00 0.00 70 1011.3
20260506001802 16 79 8.0 20.9 0.00 0.00 0.00 70 1011.2
20260506001725 16 353 8.0 20.9 0.00 0.00 0.00 70 1011.3
20260506001609 16 59 4.8 20.9 0.00 0.00 0.00 70 1011.3
20260506001512 16 30 1.6 20.9 0.00 0.00 0.00 70 1011.2
20260506001355 16 67 3.2 20.9 0.00 0.00 0.00 70 1011.2
20260506001302 16 16 4.8 22.5 0.00 0.00 0.00 70 1011.2
20260506001206 16 50 3.2 22.5 0.00 0.00 0.00 69 1011.2
20260506001109 16 338 6.4 22.5 0.00 0.00 0.00 70 1011.1
20260506001012 16 359 9.7 22.5 0.00 0.00 0.00 70 1011.1
20260506000855 16 28 6.4 22.5 0.00 0.00 0.00 70 1011.1
20260506000759 16 33 4.8 22.5 0.00 0.00 0.00 70 1011.1
20260506000706 16 333 4.8 22.5 0.00 0.00 0.00 70 1011.1
20260506000611 16 38 8.0 22.5 0.00 0.00 0.00 70 1011.1
20260506000534 16 44 8.0 22.5 0.00 0.00 0.00 70 1011.1
20260506000356 16 13 3.2 22.5 0.00 0.00 0.00 70 1011.0
20260506000319 16 38 6.4 22.5 0.00 0.00 0.00 70 1011.0
20260506000204 16 62 4.8 22.5 0.00 0.00 0.00 70 1010.9
20260506000116 16 9 1.6 22.5 0.00 0.00 0.00 70 1010.8
20260506000005 16 37 4.8 22.5 0.00 0.00 0.00 70 1010.9
20260505235908 16 20 6.4 22.5 0.00 0.00 0.00 70 1010.9
20260505235832 16 1 3.2 22.5 0.00 0.00 0.00 70 1010.8
20260505235655 16 23 3.2 22.5 0.00 0.00 0.00 70 1010.8
20260505235558 16 340 4.8 22.5 0.00 0.00 0.00 70 1010.8
20260505235501 16 65 4.8 25.7 0.00 0.00 0.00 70 1010.8
20260505235404 16 91 3.2 27.4 0.00 0.00 0.00 70 1010.8
20260505235312 16 46 1.6 27.4 0.00 0.00 0.00 70 1010.8
20260505235155 16 30 4.8 27.4 0.00 0.00 0.00 70 1010.8
20260505235120 16 25 6.4 27.4 0.00 0.00 0.00 70 1010.7
20260505235022 16 341 9.7 27.4 0.00 0.00 0.00 70 1010.7
20260505234904 16 60 9.7 27.4 0.00 0.00 0.00 70 1010.8
20260505234808 16 359 8.0 27.4 0.00 0.00 0.00 70 1010.7
20260505234654 16 30 6.4 27.4 0.00 0.00 0.00 70 1010.7
20260505234618 16 349 3.2 27.4 0.00 0.00 0.00 70 1010.6
20260505234459 16 59 0.0 22.5 0.00 0.00 0.00 70 1010.7
20260505234403 16 28 3.2 22.5 0.00 0.00 0.00 70 1010.7
20260505234306 16 56 6.4 22.5 0.00 0.00 0.00 70 1010.7
20260505234210 16 16 8.0 22.5 0.00 0.00 0.00 70 1010.7
20260505234113 16 39 4.8 22.5 0.00 0.00 0.00 70 1010.7
20260505233959 16 30 1.6 17.7 0.00 0.00 0.00 70 1010.6
20260505233903 16 12 3.2 17.7 0.00 0.00 0.00 70 1010.6
20260505233827 16 342 3.2 19.3 0.00 0.00 0.00 70 1010.6
20260505233709 16 22 6.4 14.5 0.00 0.00 0.00 70 1010.6
20260505233634 16 336 8.0 14.5 0.00 0.00 0.00 70 1010.6
20260505233455 16 42 4.8 14.5 0.00 0.00 0.00 70 1010.6
20260505233419 16 28 4.8 12.9 0.00 0.00 0.00 70 1010.5
20260505233322 16 21 4.8 17.7 0.00 0.00 0.00 70 1010.6
20260505233229 16 355 4.8 17.7 0.00 0.00 0.00 70 1010.6
20260505233112 16 347 3.2 17.7 0.00 0.00 0.00 70 1010.6
20260505232954 16 25 4.8 17.7 0.00 0.00 0.00 70 1010.6
20260505232918 16 321 3.2 17.7 0.00 0.00 0.00 70 1010.6